Observation data for Odell on 01/21/2019      Previous  Date  Next       Current Mesonet Observations  Soil Data  Daily Summary Page  Observations in Plain Language
KOD1 210600Z 12008KT 03/M03 A3006 RMK A01 T00311025  RH  066%=      5-min Rain = 0
KOD1 210601Z 13010KT 03/M03 A3006 RMK A01 T00311025  RH  067%=      5-min Rain = 0
KOD1 210602Z 12010KT 03/M03 A3006 RMK A01 T00311025  RH  067%=      5-min Rain = 0
KOD1 210603Z 12009KT 03/M03 A3006 RMK A01 T00311025  RH  067%=      5-min Rain = 0
KOD1 210604Z 12009KT 03/M03 A3006 RMK A01 T00301025  RH  067%=      5-min Rain = 0
KOD1 210605Z 13009KT 03/M03 A3006 RMK A01 T00301025  RH  067%=      5-min Rain = 0
KOD1 210606Z 12009KT 03/M03 A3006 RMK A01 T00291025  RH  067%=      5-min Rain = 0
KOD1 210607Z 12010KT 03/M03 A3006 RMK A01 T00291026  RH  068%=      5-min Rain = 0
KOD1 210608Z 12010KT 03/M03 A3006 RMK A01 T00281026  RH  068%=      5-min Rain = 0
KOD1 210609Z 12010KT 03/M03 A3006 RMK A01 T00281026  RH  068%=      5-min Rain = 0
KOD1 210610Z 12009KT 03/M03 A3006 RMK A01 T00271026  RH  068%=      5-min Rain = 0
KOD1 210611Z 12010KT 03/M03 A3006 RMK A01 T00271026  RH  068%=      5-min Rain = 0
KOD1 210612Z 12009KT 03/M03 A3006 RMK A01 T00271026  RH  068%=      5-min Rain = 0
KOD1 210613Z 12009KT 03/M03 A3006 RMK A01 T00261026  RH  069%=      5-min Rain = 0
KOD1 210614Z 12009KT 03/M03 A3006 RMK A01 T00251026  RH  069%=      5-min Rain = 0
KOD1 210615Z 12009KT 03/M03 A3006 RMK A01 T00251026  RH  069%=      5-min Rain = 0
KOD1 210616Z 12009KT 03/M03 A3006 RMK A01 T00251025  RH  069%=      5-min Rain = 0
KOD1 210617Z 12009KT 03/M03 A3006 RMK A01 T00251026  RH  069%=      5-min Rain = 0
KOD1 210618Z 12008KT 02/M03 A3006 RMK A01 T00241026  RH  070%=      5-min Rain = 0
KOD1 210619Z 12009KT 02/M03 A3006 RMK A01 T00231026  RH  070%=      5-min Rain = 0
KOD1 210620Z 12009KT 02/M03 A3006 RMK A01 T00231026  RH  070%=      5-min Rain = 0
KOD1 210621Z 12009KT 02/M03 A3006 RMK A01 T00231025  RH  070%=      5-min Rain = 0
KOD1 210622Z 12009KT 02/M03 A3006 RMK A01 T00231025  RH  070%=      5-min Rain = 0
KOD1 210623Z 12008KT 02/M03 A3006 RMK A01 T00231026  RH  070%=      5-min Rain = 0
KOD1 210624Z 12008KT 02/M03 A3006 RMK A01 T00231026  RH  070%=      5-min Rain = 0
KOD1 210625Z 12009KT 02/M03 A3006 RMK A01 T00221026  RH  071%=      5-min Rain = 0
KOD1 210626Z 12008KT 02/M03 A3006 RMK A01 T00221026  RH  071%=      5-min Rain = 0
KOD1 210627Z 12009KT 02/M03 A3006 RMK A01 T00221025  RH  071%=      5-min Rain = 0
KOD1 210628Z 13009KT 02/M03 A3006 RMK A01 T00211026  RH  071%=      5-min Rain = 0
KOD1 210629Z 13009KT 02/M03 A3006 RMK A01 T00221025  RH  071%=      5-min Rain = 0
KOD1 210630Z 12007KT 02/M03 A3006 RMK A01 T00221025  RH  071%=      5-min Rain = 0
KOD1 210631Z 12009KT 02/M03 A3006 RMK A01 T00211025  RH  071%=      5-min Rain = 0
KOD1 210632Z 12008KT 02/M03 A3006 RMK A01 T00211025  RH  071%=      5-min Rain = 0
KOD1 210633Z 12010KT 02/M03 A3006 RMK A01 T00211025  RH  071%=      5-min Rain = 0
KOD1 210634Z 12009KT 02/M03 A3006 RMK A01 T00211025  RH  072%=      5-min Rain = 0
KOD1 210635Z 12009KT 02/M03 A3006 RMK A01 T00211025  RH  072%=      5-min Rain = 0
KOD1 210636Z 13008KT 02/M02 A3006 RMK A01 T00211024  RH  072%=      5-min Rain = 0
KOD1 210637Z 12008KT 02/M03 A3006 RMK A01 T00211025  RH  071%=      5-min Rain = 0
KOD1 210638Z 12008KT 02/M03 A3006 RMK A01 T00211025  RH  072%=      5-min Rain = 0
KOD1 210639Z 12009KT 02/M03 A3006 RMK A01 T00201025  RH  072%=      5-min Rain = 0
KOD1 210640Z 12008KT 02/M03 A3006 RMK A01 T00201025  RH  072%=      5-min Rain = 0
KOD1 210641Z 12009KT 02/M03 A3006 RMK A01 T00191026  RH  072%=      5-min Rain = 0
KOD1 210642Z 12009KT 02/M03 A3006 RMK A01 T00191025  RH  073%=      5-min Rain = 0
KOD1 210643Z 12008KT 02/M03 A3006 RMK A01 T00181025  RH  073%=      5-min Rain = 0
KOD1 210644Z 12009KT 02/M03 A3006 RMK A01 T00181025  RH  073%=      5-min Rain = 0
KOD1 210645Z 12009KT 02/M03 A3006 RMK A01 T00171025  RH  073%=      5-min Rain = 0
KOD1 210646Z 12009KT 02/M03 A3006 RMK A01 T00171025  RH  074%=      5-min Rain = 0
KOD1 210647Z 12010KT 02/M02 A3006 RMK A01 T00181024  RH  074%=      5-min Rain = 0
KOD1 210648Z 13010KT 02/M02 A3006 RMK A01 T00181024  RH  074%=      5-min Rain = 0
KOD1 210649Z 12008KT 02/M02 A3006 RMK A01 T00181024  RH  073%=      5-min Rain = 0
KOD1 210650Z 12009KT 02/M03 A3005 RMK A01 T00181025  RH  073%=      5-min Rain = 0
KOD1 210651Z 12009KT 02/M02 A3005 RMK A01 T00181024  RH  073%=      5-min Rain = 0
KOD1 210652Z 13008KT 02/M03 A3005 RMK A01 T00181025  RH  073%=      5-min Rain = 0
KOD1 210653Z 12009KT 02/M03 A3005 RMK A01 T00171025  RH  074%=      5-min Rain = 0
KOD1 210654Z 12008KT 02/M03 A3005 RMK A01 T00171025  RH  074%=      5-min Rain = 0
KOD1 210655Z 12009KT 02/M03 A3005 RMK A01 T00161025  RH  074%=      5-min Rain = 0
KOD1 210656Z 12009KT 02/M02 A3005 RMK A01 T00161024  RH  074%=      5-min Rain = 0
KOD1 210657Z 12009KT 02/M02 A3005 RMK A01 T00171024  RH  074%=      5-min Rain = 0
KOD1 210658Z 12009KT 02/M02 A3005 RMK A01 T00171024  RH  074%=      5-min Rain = 0
KOD1 210659Z 12009KT 02/M03 A3005 RMK A01 T00171025  RH  074%=      5-min Rain = 0
KOD1 210700Z 12010KT 02/M02 A3005 RMK A01 T00161024  RH  074%=      5-min Rain = 0
KOD1 210701Z 12008KT 02/M03 A3005 RMK A01 T00161025  RH  074%=      5-min Rain = 0
KOD1 210702Z 12009KT 02/M03 A3005 RMK A01 T00161025  RH  075%=      5-min Rain = 0
KOD1 210703Z 13010KT 02/M02 A3005 RMK A01 T00151024  RH  075%=      5-min Rain = 0
KOD1 210704Z 13009KT 02/M02 A3005 RMK A01 T00161024  RH  075%=      5-min Rain = 0
KOD1 210705Z 12009KT 02/M02 A3005 RMK A01 T00161024  RH  075%=      5-min Rain = 0
KOD1 210706Z 13009KT 02/M02 A3005 RMK A01 T00161024  RH  075%=      5-min Rain = 0
KOD1 210707Z 13010KT 02/M02 A3004 RMK A01 T00151024  RH  075%=      5-min Rain = 0
KOD1 210708Z 12009KT 02/M02 A3004 RMK A01 T00161024  RH  075%=      5-min Rain = 0
KOD1 210709Z 12010KT 02/M02 A3004 RMK A01 T00161023  RH  075%=      5-min Rain = 0
KOD1 210710Z 12011KT 02/M02 A3004 RMK A01 T00161023  RH  075%=      5-min Rain = 0
KOD1 210711Z 12010KT 02/M02 A3004 RMK A01 T00171023  RH  075%=      5-min Rain = 0
KOD1 210712Z 13011KT 02/M02 A3004 RMK A01 T00171023  RH  075%=      5-min Rain = 0
KOD1 210713Z 13010KT 02/M02 A3004 RMK A01 T00171023  RH  075%=      5-min Rain = 0
KOD1 210714Z 12011KT 02/M02 A3004 RMK A01 T00171023  RH  075%=      5-min Rain = 0
KOD1 210715Z 13011KT 02/M02 A3004 RMK A01 T00171023  RH  075%=      5-min Rain = 0
KOD1 210716Z 13010KT 02/M02 A3004 RMK A01 T00171023  RH  075%=      5-min Rain = 0
KOD1 210717Z 13010KT 02/M02 A3004 RMK A01 T00171023  RH  075%=      5-min Rain = 0
KOD1 210718Z 13010KT 02/M02 A3004 RMK A01 T00171023  RH  075%=      5-min Rain = 0
KOD1 210719Z 13011KT 02/M02 A3004 RMK A01 T00171023  RH  075%=      5-min Rain = 0
KOD1 210720Z 12011KT 02/M02 A3004 RMK A01 T00171023  RH  075%=      5-min Rain = 0
KOD1 210721Z 13011KT 02/M02 A3004 RMK A01 T00181023  RH  074%=      5-min Rain = 0
KOD1 210722Z 13010KT 02/M02 A3004 RMK A01 T00181023  RH  074%=      5-min Rain = 0
KOD1 210723Z 13012KT 02/M02 A3004 RMK A01 T00171023  RH  075%=      5-min Rain = 0
KOD1 210724Z 13011KT 02/M02 A3004 RMK A01 T00171023  RH  075%=      5-min Rain = 0
KOD1 210725Z 13012KT 02/M02 A3004 RMK A01 T00171023  RH  075%=      5-min Rain = 0
KOD1 210726Z 13011KT 02/M02 A3003 RMK A01 T00161023  RH  075%=      5-min Rain = 0
KOD1 210727Z 13012KT 02/M02 A3003 RMK A01 T00161023  RH  075%=      5-min Rain = 0
KOD1 210728Z 12012KT 02/M02 A3003 RMK A01 T00161023  RH  075%=      5-min Rain = 0
KOD1 210729Z 13012KT 02/M02 A3003 RMK A01 T00161023  RH  075%=      5-min Rain = 0
KOD1 210730Z 13012KT 02/M02 A3003 RMK A01 T00161023  RH  075%=      5-min Rain = 0
KOD1 210731Z 13012KT 02/M02 A3003 RMK A01 T00171022  RH  075%=      5-min Rain = 0
KOD1 210732Z 12012KT 02/M02 A3003 RMK A01 T00171023  RH  075%=      5-min Rain = 0
KOD1 210733Z 12012KT 02/M02 A3003 RMK A01 T00171023  RH  075%=      5-min Rain = 0
KOD1 210734Z 12012KT 02/M02 A3003 RMK A01 T00161023  RH  075%=      5-min Rain = 0
KOD1 210735Z 13012KT 02/M02 A3003 RMK A01 T00161023  RH  075%=      5-min Rain = 0
KOD1 210736Z 13012KT 02/M02 A3003 RMK A01 T00161023  RH  075%=      5-min Rain = 0
KOD1 210737Z 13012KT 02/M02 A3003 RMK A01 T00161023  RH  075%=      5-min Rain = 0
KOD1 210738Z 13012KT 02/M02 A3003 RMK A01 T00161023  RH  075%=      5-min Rain = 0
KOD1 210739Z 13011KT 02/M02 A3003 RMK A01 T00161023  RH  075%=      5-min Rain = 0
KOD1 210740Z 12010KT 02/M02 A3003 RMK A01 T00151023  RH  076%=      5-min Rain = 0
KOD1 210741Z 13011KT 02/M02 A3003 RMK A01 T00151023  RH  076%=      5-min Rain = 0
KOD1 210742Z 13011KT 01/M02 A3003 RMK A01 T00141023  RH  076%=      5-min Rain = 0
KOD1 210743Z 12012KT 02/M02 A3003 RMK A01 T00151023  RH  076%=      5-min Rain = 0
KOD1 210744Z 12012KT 02/M02 A3003 RMK A01 T00151023  RH  076%=      5-min Rain = 0
KOD1 210745Z 12011KT 02/M02 A3003 RMK A01 T00151023  RH  076%=      5-min Rain = 0
KOD1 210746Z 12011KT 02/M02 A3003 RMK A01 T00151023  RH  076%=      5-min Rain = 0
KOD1 210747Z 13011KT 02/M02 A3003 RMK A01 T00151023  RH  076%=      5-min Rain = 0
KOD1 210748Z 12012KT 02/M02 A3003 RMK A01 T00151023  RH  076%=      5-min Rain = 0
KOD1 210749Z 12011KT 02/M02 A3003 RMK A01 T00151023  RH  076%=      5-min Rain = 0
KOD1 210750Z 13012KT 01/M02 A3002 RMK A01 T00141023  RH  076%=      5-min Rain = 0
KOD1 210751Z 13012KT 01/M02 A3002 RMK A01 T00141023  RH  077%=      5-min Rain = 0
KOD1 210752Z 12012KT 01/M02 A3002 RMK A01 T00131023  RH  077%=      5-min Rain = 0
KOD1 210753Z 13012KT 01/M02 A3002 RMK A01 T00131023  RH  077%=      5-min Rain = 0
KOD1 210754Z 13012KT 01/M02 A3002 RMK A01 T00131023  RH  077%=      5-min Rain = 0
KOD1 210755Z 12012KT 01/M02 A3002 RMK A01 T00131023  RH  077%=      5-min Rain = 0
KOD1 210756Z 13011KT 01/M02 A3002 RMK A01 T00131023  RH  077%=      5-min Rain = 0
KOD1 210757Z 12012KT 01/M02 A3002 RMK A01 T00131023  RH  077%=      5-min Rain = 0
KOD1 210758Z 12012KT 01/M02 A3002 RMK A01 T00131023  RH  077%=      5-min Rain = 0
KOD1 210759Z 12012KT 01/M02 A3002 RMK A01 T00131023  RH  077%=      5-min Rain = 0
KOD1 210800Z 12011KT 01/M02 A3002 RMK A01 T00121023  RH  077%=      5-min Rain = 0
KOD1 210801Z 12011KT 01/M02 A3002 RMK A01 T00121023  RH  078%=      5-min Rain = 0
KOD1 210802Z 12010KT 01/M02 A3003 RMK A01 T00121022  RH  078%=      5-min Rain = 0
KOD1 210803Z 12011KT 01/M02 A3003 RMK A01 T00121022  RH  078%=      5-min Rain = 0
KOD1 210804Z 12011KT 01/M02 A3003 RMK A01 T00121022  RH  078%=      5-min Rain = 0
KOD1 210805Z 12011KT 01/M02 A3003 RMK A01 T00131022  RH  078%=      5-min Rain = 0
KOD1 210806Z 12010KT 01/M02 A3003 RMK A01 T00131022  RH  077%=      5-min Rain = 0
KOD1 210807Z 12010KT 01/M02 A3003 RMK A01 T00131023  RH  077%=      5-min Rain = 0
KOD1 210808Z 12010KT 01/M02 A3003 RMK A01 T00121023  RH  078%=      5-min Rain = 0
KOD1 210809Z 12010KT 01/M02 A3002 RMK A01 T00131022  RH  078%=      5-min Rain = 0
KOD1 210810Z 12010KT 01/M02 A3002 RMK A01 T00131022  RH  078%=      5-min Rain = 0
KOD1 210811Z 12010KT 01/M02 A3002 RMK A01 T00131022  RH  078%=      5-min Rain = 0
KOD1 210812Z 13010KT 01/M02 A3002 RMK A01 T00131022  RH  078%=      5-min Rain = 0
KOD1 210813Z 13009KT 01/M02 A3002 RMK A01 T00121023  RH  077%=      5-min Rain = 0
KOD1 210814Z 13010KT 01/M02 A3002 RMK A01 T00121023  RH  078%=      5-min Rain = 0
KOD1 210815Z 12010KT 01/M02 A3002 RMK A01 T00121022  RH  078%=      5-min Rain = 0
KOD1 210816Z 13010KT 01/M02 A3002 RMK A01 T00121022  RH  078%=      5-min Rain = 0
KOD1 210817Z 13010KT 01/M02 A3002 RMK A01 T00121022  RH  078%=      5-min Rain = 0
KOD1 210818Z 13009KT 01/M02 A3002 RMK A01 T00121022  RH  078%=      5-min Rain = 0
KOD1 210819Z 12011KT 01/M02 A3002 RMK A01 T00121022  RH  078%=      5-min Rain = 0
KOD1 210820Z 13010KT 01/M02 A3002 RMK A01 T00131022  RH  078%=      5-min Rain = 0
KOD1 210821Z 12009KT 01/M02 A3003 RMK A01 T00131022  RH  078%=      5-min Rain = 0
KOD1 210822Z 12011KT 01/M02 A3003 RMK A01 T00131022  RH  078%=      5-min Rain = 0
KOD1 210823Z 12010KT 01/M02 A3003 RMK A01 T00131022  RH  078%=      5-min Rain = 0
KOD1 210824Z 12010KT 01/M02 A3003 RMK A01 T00131022  RH  077%=      5-min Rain = 0
KOD1 210825Z 12010KT 01/M02 A3003 RMK A01 T00131022  RH  078%=      5-min Rain = 0
KOD1 210826Z 12010KT 01/M02 A3003 RMK A01 T00131022  RH  078%=      5-min Rain = 0
KOD1 210827Z 12011KT 01/M02 A3003 RMK A01 T00131022  RH  078%=      5-min Rain = 0
KOD1 210828Z 12010KT 01/M02 A3003 RMK A01 T00121022  RH  078%=      5-min Rain = 0
KOD1 210829Z 12010KT 01/M02 A3003 RMK A01 T00111022  RH  078%=      5-min Rain = 0
KOD1 210830Z 12010KT 01/M02 A3003 RMK A01 T00111022  RH  079%=      5-min Rain = 0
KOD1 210831Z 12011KT 01/M02 A3003 RMK A01 T00121021  RH  079%=      5-min Rain = 0
KOD1 210832Z 12011KT 01/M02 A3003 RMK A01 T00121022  RH  078%=      5-min Rain = 0
KOD1 210833Z 12011KT 01/M02 A3003 RMK A01 T00121022  RH  078%=      5-min Rain = 0
KOD1 210834Z 12011KT 01/M02 A3002 RMK A01 T00111022  RH  079%=      5-min Rain = 0
KOD1 210835Z 12011KT 01/M02 A3002 RMK A01 T00111021  RH  079%=      5-min Rain = 0
KOD1 210836Z 12010KT 01/M02 A3002 RMK A01 T00111022  RH  079%=      5-min Rain = 0
KOD1 210837Z 12011KT 01/M02 A3002 RMK A01 T00111022  RH  079%=      5-min Rain = 0
KOD1 210838Z 12011KT 01/M02 A3002 RMK A01 T00111021  RH  079%=      5-min Rain = 0
KOD1 210839Z 12012KT 01/M02 A3002 RMK A01 T00111022  RH  079%=      5-min Rain = 0
KOD1 210840Z 12013KT 01/M02 A3001 RMK A01 T00111021  RH  079%=      5-min Rain = 0
KOD1 210841Z 12012KT 01/M02 A3002 RMK A01 T00111022  RH  079%=      5-min Rain = 0
KOD1 210842Z 12012KT 01/M02 A3002 RMK A01 T00111021  RH  079%=      5-min Rain = 0
KOD1 210843Z 12013KT 01/M02 A3002 RMK A01 T00121021  RH  079%=      5-min Rain = 0
KOD1 210844Z 12012KT 01/M02 A3002 RMK A01 T00121021  RH  079%=      5-min Rain = 0
KOD1 210845Z 12012KT 01/M02 A3002 RMK A01 T00121021  RH  079%=      5-min Rain = 0
KOD1 210846Z 12012KT 01/M02 A3002 RMK A01 T00111021  RH  079%=      5-min Rain = 0
KOD1 210847Z 12012KT 01/M02 A3002 RMK A01 T00111021  RH  079%=      5-min Rain = 0
KOD1 210848Z 12011KT 01/M02 A3002 RMK A01 T00111022  RH  079%=      5-min Rain = 0
KOD1 210849Z 12012KT 01/M02 A3002 RMK A01 T00101022  RH  079%=      5-min Rain = 0
KOD1 210850Z 12013KT 01/M02 A3001 RMK A01 T00101021  RH  080%=      5-min Rain = 0
KOD1 210851Z 12012KT 01/M02 A3001 RMK A01 T00101021  RH  080%=      5-min Rain = 0
KOD1 210852Z 13012KT 01/M02 A3001 RMK A01 T00101021  RH  080%=      5-min Rain = 0
KOD1 210853Z 12012KT 01/M02 A3001 RMK A01 T00101021  RH  080%=      5-min Rain = 0
KOD1 210854Z 12012KT 01/M02 A3001 RMK A01 T00101022  RH  080%=      5-min Rain = 0
KOD1 210855Z 13012KT 01/M02 A3001 RMK A01 T00101021  RH  080%=      5-min Rain = 0
KOD1 210856Z 13012KT 01/M02 A3001 RMK A01 T00101021  RH  080%=      5-min Rain = 0
KOD1 210857Z 13011KT 01/M02 A3001 RMK A01 T00111020  RH  079%=      5-min Rain = 0
KOD1 210858Z 13013KT 01/M02 A3001 RMK A01 T00121021  RH  079%=      5-min Rain = 0
KOD1 210859Z 13011KT 01/M02 A3001 RMK A01 T00121021  RH  079%=      5-min Rain = 0
KOD1 210900Z 13012KT 01/M02 A3001 RMK A01 T00111021  RH  079%=      5-min Rain = 0
KOD1 210901Z 13012KT 01/M02 A3001 RMK A01 T00111021  RH  079%=      5-min Rain = 0
KOD1 210902Z 13012KT 01/M02 A3001 RMK A01 T00111021  RH  079%=      5-min Rain = 0
KOD1 210903Z 13011KT 01/M02 A3001 RMK A01 T00111021  RH  079%=      5-min Rain = 0
KOD1 210904Z 13011KT 01/M02 A3001 RMK A01 T00101021  RH  079%=      5-min Rain = 0
KOD1 210905Z 13010KT 01/M02 A3001 RMK A01 T00101021  RH  079%=      5-min Rain = 0
KOD1 210906Z 13011KT 01/M02 A3001 RMK A01 T00091022  RH  080%=      5-min Rain = 0
KOD1 210907Z 13011KT 01/M02 A3001 RMK A01 T00091022  RH  080%=      5-min Rain = 0
KOD1 210908Z 13012KT 01/M02 A3001 RMK A01 T00091021  RH  080%=      5-min Rain = 0
KOD1 210909Z 13012KT 01/M02 A3001 RMK A01 T00091021  RH  080%=      5-min Rain = 0
KOD1 210910Z 13011KT 01/M02 A3001 RMK A01 T00091021  RH  080%=      5-min Rain = 0
KOD1 210911Z 13012KT 01/M02 A3001 RMK A01 T00091021  RH  080%=      5-min Rain = 0
KOD1 210912Z 13012KT 01/M02 A3001 RMK A01 T00091021  RH  080%=      5-min Rain = 0
KOD1 210913Z 13013KT 01/M02 A3001 RMK A01 T00091021  RH  080%=      5-min Rain = 0
KOD1 210914Z 13011KT 01/M02 A3001 RMK A01 T00091021  RH  080%=      5-min Rain = 0
KOD1 210915Z 13012KT 01/M02 A30 RMK A01 T00091021  RH  080%=      5-min Rain = 0
KOD1 210916Z 13012KT 01/M02 A30 RMK A01 T00091021  RH  080%=      5-min Rain = 0
KOD1 210917Z 13012KT 01/M02 A30 RMK A01 T00091021  RH  080%=      5-min Rain = 0
KOD1 210918Z 13012KT 01/M02 A30 RMK A01 T00101021  RH  080%=      5-min Rain = 0
KOD1 210919Z 13012KT 01/M02 A30 RMK A01 T00101021  RH  080%=      5-min Rain = 0
KOD1 210920Z 13012KT 01/M02 A30 RMK A01 T00091021  RH  080%=      5-min Rain = 0
KOD1 210921Z 12011KT 01/M02 A30 RMK A01 T00091021  RH  080%=      5-min Rain = 0
KOD1 210922Z 13012KT 01/M02 A30 RMK A01 T00091021  RH  080%=      5-min Rain = 0
KOD1 210923Z 13011KT 01/M02 A30 RMK A01 T00101021  RH  080%=      5-min Rain = 0
KOD1 210924Z 13011KT 01/M02 A30 RMK A01 T00101020  RH  080%=      5-min Rain = 0
KOD1 210925Z 13011KT 01/M02 A30 RMK A01 T00101020  RH  080%=      5-min Rain = 0
KOD1 210926Z 13011KT 01/M02 A30 RMK A01 T00101020  RH  080%=      5-min Rain = 0
KOD1 210927Z 13011KT 01/M02 A30 RMK A01 T00101020  RH  080%=      5-min Rain = 0
KOD1 210928Z 13011KT 01/M02 A30 RMK A01 T00101020  RH  080%=      5-min Rain = 0
KOD1 210929Z 13012KT 01/M02 A2999 RMK A01 T00101020  RH  080%=      5-min Rain = 0
KOD1 210930Z 13013KT 01/M02 A2999 RMK A01 T00111020  RH  080%=      5-min Rain = 0
KOD1 210931Z 13013KT 01/M02 A2999 RMK A01 T00111020  RH  080%=      5-min Rain = 0
KOD1 210932Z 13012KT 01/M02 A2999 RMK A01 T00121020  RH  080%=      5-min Rain = 0
KOD1 210933Z 13013KT 01/M02 A2999 RMK A01 T00121019  RH  080%=      5-min Rain = 0
KOD1 210934Z 13012KT 01/M02 A2999 RMK A01 T00121019  RH  079%=      5-min Rain = 0
KOD1 210935Z 13013KT 01/M02 A2999 RMK A01 T00131019  RH  079%=      5-min Rain = 0
KOD1 210936Z 13014KT 01/M02 A2999 RMK A01 T00131019  RH  079%=      5-min Rain = 0
KOD1 210937Z 13013KT 01/M02 A2999 RMK A01 T00141019  RH  079%=      5-min Rain = 0
KOD1 210938Z 13013KT 01/M02 A2999 RMK A01 T00141019  RH  079%=      5-min Rain = 0
KOD1 210939Z 13013KT 01/M02 A2999 RMK A01 T00141019  RH  079%=      5-min Rain = 0
KOD1 210940Z 13012KT 01/M02 A2999 RMK A01 T00141019  RH  079%=      5-min Rain = 0
KOD1 210941Z 13014KT 01/M02 A2999 RMK A01 T00131019  RH  079%=      5-min Rain = 0
KOD1 210942Z 13014KT 01/M02 A2999 RMK A01 T00141019  RH  079%=      5-min Rain = 0
KOD1 210943Z 13013KT 01/M02 A2999 RMK A01 T00141019  RH  079%=      5-min Rain = 0
KOD1 210944Z 13013KT 01/M02 A2999 RMK A01 T00131019  RH  079%=      5-min Rain = 0
KOD1 210945Z 13013KT 01/M02 A2999 RMK A01 T00131019  RH  079%=      5-min Rain = 0
KOD1 210946Z 13013KT 01/M02 A2999 RMK A01 T00131019  RH  079%=      5-min Rain = 0
KOD1 210947Z 13014KT 01/M02 A2999 RMK A01 T00131019  RH  079%=      5-min Rain = 0
KOD1 210948Z 13013KT 01/M02 A2999 RMK A01 T00131019  RH  079%=      5-min Rain = 0
KOD1 210949Z 13014KT 01/M02 A2999 RMK A01 T00131018  RH  079%=      5-min Rain = 0
KOD1 210950Z 13014KT 01/M02 A2999 RMK A01 T00131019  RH  079%=      5-min Rain = 0
KOD1 210951Z 13012KT 01/M02 A2999 RMK A01 T00131019  RH  079%=      5-min Rain = 0
KOD1 210952Z 13013KT 01/M02 A2998 RMK A01 T00121019  RH  080%=      5-min Rain = 0
KOD1 210953Z 13014KT 01/M02 A2998 RMK A01 T00121018  RH  080%=      5-min Rain = 0
KOD1 210954Z 13013KT 01/M02 A2998 RMK A01 T00131019  RH  080%=      5-min Rain = 0
KOD1 210955Z 13013KT 01/M02 A2998 RMK A01 T00121019  RH  080%=      5-min Rain = 0
KOD1 210956Z 13013KT 01/M02 A2998 RMK A01 T00121019  RH  080%=      5-min Rain = 0
KOD1 210957Z 13013KT 01/M02 A2998 RMK A01 T00121019  RH  080%=      5-min Rain = 0
KOD1 210958Z 13013KT 01/M02 A2998 RMK A01 T00121019  RH  080%=      5-min Rain = 0
KOD1 210959Z 13013KT 01/M02 A2998 RMK A01 T00121019  RH  080%=      5-min Rain = 0
KOD1 211000Z 13012KT 01/M02 A2998 RMK A01 T00111019  RH  080%=      5-min Rain = 0
KOD1 211001Z 13013KT 01/M02 A2998 RMK A01 T00111019  RH  080%=      5-min Rain = 0
KOD1 211002Z 13013KT 01/M02 A2998 RMK A01 T00111018  RH  081%=      5-min Rain = 0
KOD1 211003Z 13013KT 01/M02 A2998 RMK A01 T00111019  RH  080%=      5-min Rain = 0
KOD1 211004Z 13013KT 01/M02 A2998 RMK A01 T00111019  RH  080%=      5-min Rain = 0
KOD1 211005Z 13013KT 01/M02 A2998 RMK A01 T00121018  RH  081%=      5-min Rain = 0
KOD1 211006Z 13012KT 01/M02 A2998 RMK A01 T00121019  RH  080%=      5-min Rain = 0
KOD1 211007Z 13012KT 01/M02 A2998 RMK A01 T00111019  RH  080%=      5-min Rain = 0
KOD1 211008Z 13012KT 01/M02 A2998 RMK A01 T00111019  RH  081%=      5-min Rain = 0
KOD1 211009Z 13012KT 01/M02 A2998 RMK A01 T00111018  RH  081%=      5-min Rain = 0
KOD1 211010Z 13013KT 01/M02 A2998 RMK A01 T00111018  RH  081%=      5-min Rain = 0
KOD1 211011Z 13011KT 01/M02 A2998 RMK A01 T00111018  RH  081%=      5-min Rain = 0
KOD1 211012Z 13013KT 01/M02 A2998 RMK A01 T00111018  RH  081%=      5-min Rain = 0
KOD1 211013Z 13011KT 01/M02 A2998 RMK A01 T00121018  RH  081%=      5-min Rain = 0
KOD1 211014Z 13011KT 01/M02 A2998 RMK A01 T00121018  RH  080%=      5-min Rain = 0
KOD1 211015Z 13012KT 01/M02 A2998 RMK A01 T00111019  RH  081%=      5-min Rain = 0
KOD1 211016Z 13011KT 01/M02 A2998 RMK A01 T00111019  RH  081%=      5-min Rain = 0
KOD1 211017Z 13011KT 01/M02 A2998 RMK A01 T00111019  RH  081%=      5-min Rain = 0
KOD1 211018Z 13011KT 01/M02 A2999 RMK A01 T00111018  RH  081%=      5-min Rain = 0
KOD1 211019Z 13011KT 01/M02 A2999 RMK A01 T00111018  RH  081%=      5-min Rain = 0
KOD1 211020Z 13011KT 01/M02 A2999 RMK A01 T00111018  RH  081%=      5-min Rain = 0
KOD1 211021Z 13011KT 01/M02 A2999 RMK A01 T00111018  RH  081%=      5-min Rain = 0
KOD1 211022Z 13011KT 01/M02 A2999 RMK A01 T00111018  RH  081%=      5-min Rain = 0
KOD1 211023Z 13011KT 01/M02 A2999 RMK A01 T00101018  RH  081%=      5-min Rain = 0
KOD1 211024Z 13010KT 01/M02 A2999 RMK A01 T00101018  RH  081%=      5-min Rain = 0
KOD1 211025Z 13010KT 01/M02 A2999 RMK A01 T00101019  RH  081%=      5-min Rain = 0
KOD1 211026Z 13011KT 01/M02 A2999 RMK A01 T00101018  RH  081%=      5-min Rain = 0
KOD1 211027Z 13011KT 01/M02 A2999 RMK A01 T00101018  RH  082%=      5-min Rain = 0
KOD1 211028Z 13010KT 01/M02 A2999 RMK A01 T00101018  RH  081%=      5-min Rain = 0
KOD1 211029Z 12011KT 01/M02 A2999 RMK A01 T00101018  RH  081%=      5-min Rain = 0
KOD1 211030Z 13011KT 01/M02 A2999 RMK A01 T00101018  RH  081%=      5-min Rain = 0
KOD1 211031Z 13010KT 01/M02 A2999 RMK A01 T00101018  RH  082%=      5-min Rain = 0
KOD1 211032Z 13010KT 01/M02 A2999 RMK A01 T00101018  RH  082%=      5-min Rain = 0
KOD1 211033Z 13010KT 01/M02 A2998 RMK A01 T00101018  RH  082%=      5-min Rain = 0
KOD1 211034Z 13010KT 01/M02 A2998 RMK A01 T00101018  RH  082%=      5-min Rain = 0
KOD1 211035Z 13011KT 01/M02 A2998 RMK A01 T00101017  RH  082%=      5-min Rain = 0
KOD1 211036Z 13011KT 01/M02 A2998 RMK A01 T00111017  RH  082%=      5-min Rain = 0
KOD1 211037Z 13010KT 01/M02 A2998 RMK A01 T00111017  RH  081%=      5-min Rain = 0
KOD1 211038Z 13010KT 01/M02 A2998 RMK A01 T00111017  RH  081%=      5-min Rain = 0
KOD1 211039Z 13010KT 01/M02 A2998 RMK A01 T00111017  RH  081%=      5-min Rain = 0
KOD1 211040Z 13011KT 01/M02 A2998 RMK A01 T00111017  RH  081%=      5-min Rain = 0
KOD1 211041Z 13011KT 01/M02 A2998 RMK A01 T00111017  RH  082%=      5-min Rain = 0
KOD1 211042Z 13011KT 01/M02 A2998 RMK A01 T00111017  RH  081%=      5-min Rain = 0
KOD1 211043Z 13011KT 01/M02 A2998 RMK A01 T00111017  RH  081%=      5-min Rain = 0
KOD1 211044Z 13012KT 01/M02 A2998 RMK A01 T00111017  RH  081%=      5-min Rain = 0
KOD1 211045Z 13011KT 01/M02 A2998 RMK A01 T00111017  RH  081%=      5-min Rain = 0
KOD1 211046Z 13011KT 01/M02 A2998 RMK A01 T00111017  RH  082%=      5-min Rain = 0
KOD1 211047Z 13011KT 01/M02 A2998 RMK A01 T00111017  RH  082%=      5-min Rain = 0
KOD1 211048Z 13010KT 01/M02 A2998 RMK A01 T00111017  RH  082%=      5-min Rain = 0
KOD1 211049Z 13012KT 01/M02 A2998 RMK A01 T00111016  RH  082%=      5-min Rain = 0
KOD1 211050Z 13012KT 01/M02 A2998 RMK A01 T00111017  RH  082%=      5-min Rain = 0
KOD1 211051Z 13011KT 01/M02 A2997 RMK A01 T00111017  RH  081%=      5-min Rain = 0
KOD1 211052Z 13011KT 01/M02 A2997 RMK A01 T00111018  RH  081%=      5-min Rain = 0
KOD1 211053Z 13012KT 01/M02 A2997 RMK A01 T00101018  RH  082%=      5-min Rain = 0
KOD1 211054Z 13011KT 01/M02 A2997 RMK A01 T00101017  RH  082%=      5-min Rain = 0
KOD1 211055Z 13012KT 01/M02 A2997 RMK A01 T00101017  RH  082%=      5-min Rain = 0
KOD1 211056Z 13011KT 01/M02 A2997 RMK A01 T00111017  RH  082%=      5-min Rain = 0
KOD1 211057Z 13011KT 01/M02 A2997 RMK A01 T00101017  RH  082%=      5-min Rain = 0
KOD1 211058Z 13011KT 01/M02 A2997 RMK A01 T00101017  RH  082%=      5-min Rain = 0
KOD1 211059Z 13011KT 01/M02 A2997 RMK A01 T00101017  RH  082%=      5-min Rain = 0
KOD1 211100Z 13012KT 01/M02 A2997 RMK A01 T00101016  RH  082%=      5-min Rain = 0
KOD1 211101Z 13012KT 01/M02 A2997 RMK A01 T00111016  RH  082%=      5-min Rain = 0
KOD1 211102Z 13012KT 01/M02 A2997 RMK A01 T00111016  RH  082%=      5-min Rain = 0
KOD1 211103Z 13011KT 01/M02 A2997 RMK A01 T00111016  RH  082%=      5-min Rain = 0
KOD1 211104Z 13012KT 01/M02 A2997 RMK A01 T00121016  RH  082%=      5-min Rain = 0
KOD1 211105Z 13011KT 01/M02 A2997 RMK A01 T00121015  RH  082%=      5-min Rain = 0
KOD1 211106Z 13012KT 01/M02 A2997 RMK A01 T00121015  RH  082%=      5-min Rain = 0
KOD1 211107Z 14012KT 01/M02 A2997 RMK A01 T00131015  RH  082%=      5-min Rain = 0
KOD1 211108Z 14011KT 01/M02 A2997 RMK A01 T00131015  RH  082%=      5-min Rain = 0
KOD1 211109Z 13012KT 01/M01 A2997 RMK A01 T00131014  RH  082%=      5-min Rain = 0
KOD1 211110Z 13012KT 01/M02 A2997 RMK A01 T00141015  RH  082%=      5-min Rain = 0
KOD1 211111Z 13012KT 01/M02 A2997 RMK A01 T00141015  RH  082%=      5-min Rain = 0
KOD1 211112Z 13012KT 01/M01 A2996 RMK A01 T00141014  RH  082%=      5-min Rain = 0
KOD1 211113Z 13012KT 01/M01 A2996 RMK A01 T00141014  RH  082%=      5-min Rain = 0
KOD1 211114Z 14013KT 01/M01 A2996 RMK A01 T00141014  RH  082%=      5-min Rain = 0
KOD1 211115Z 14013KT 01/M01 A2996 RMK A01 T00141014  RH  081%=      5-min Rain = 0
KOD1 211116Z 14012KT 01/M01 A2996 RMK A01 T00141014  RH  081%=      5-min Rain = 0
KOD1 211117Z 14012KT 01/M01 A2996 RMK A01 T00141014  RH  082%=      5-min Rain = 0
KOD1 211118Z 14013KT 01/M01 A2996 RMK A01 T00141014  RH  082%=      5-min Rain = 0
KOD1 211119Z 14011KT 01/M01 A2996 RMK A01 T00141014  RH  082%=      5-min Rain = 0
KOD1 211120Z 14012KT 02/M01 A2996 RMK A01 T00151014  RH  082%=      5-min Rain = 0
KOD1 211121Z 13013KT 02/M01 A2996 RMK A01 T00151014  RH  082%=      5-min Rain = 0
KOD1 211122Z 14014KT 02/M01 A2996 RMK A01 T00151013  RH  082%=      5-min Rain = 0
KOD1 211123Z 14013KT 02/M01 A2996 RMK A01 T00161013  RH  081%=      5-min Rain = 0
KOD1 211124Z 14013KT 02/M01 A2996 RMK A01 T00151014  RH  081%=      5-min Rain = 0
KOD1 211125Z 14013KT 02/M01 A2996 RMK A01 T00151014  RH  081%=      5-min Rain = 0
KOD1 211126Z 14013KT 02/M01 A2996 RMK A01 T00151013  RH  081%=      5-min Rain = 0
KOD1 211127Z 13013KT 02/M01 A2996 RMK A01 T00161013  RH  081%=      5-min Rain = 0
KOD1 211128Z 14013KT 02/M01 A2996 RMK A01 T00151014  RH  081%=      5-min Rain = 0
KOD1 211129Z 14013KT 02/M01 A2996 RMK A01 T00151013  RH  081%=      5-min Rain = 0
KOD1 211130Z 14012KT 02/M01 A2996 RMK A01 T00151014  RH  081%=      5-min Rain = 0
KOD1 211131Z 14013KT 02/M01 A2996 RMK A01 T00151014  RH  082%=      5-min Rain = 0
KOD1 211132Z 14012KT 02/M01 A2996 RMK A01 T00151013  RH  082%=      5-min Rain = 0
KOD1 211133Z 14012KT 02/M01 A2996 RMK A01 T00151013  RH  082%=      5-min Rain = 0
KOD1 211134Z 14012KT 02/M01 A2996 RMK A01 T00151013  RH  082%=      5-min Rain = 0
KOD1 211135Z 13012KT 02/M01 A2996 RMK A01 T00151013  RH  082%=      5-min Rain = 0
KOD1 211136Z 14012KT 01/M01 A2996 RMK A01 T00141013  RH  082%=      5-min Rain = 0
KOD1 211137Z 13012KT 02/M01 A2996 RMK A01 T00151013  RH  082%=      5-min Rain = 0
KOD1 211138Z 13012KT 02/M01 A2996 RMK A01 T00151013  RH  082%=      5-min Rain = 0
KOD1 211139Z 13012KT 01/M01 A2996 RMK A01 T00141013  RH  082%=      5-min Rain = 0
KOD1 211140Z 13012KT 01/M01 A2996 RMK A01 T00141013  RH  082%=      5-min Rain = 0
KOD1 211141Z 13012KT 01/M01 A2996 RMK A01 T00141013  RH  082%=      5-min Rain = 0
KOD1 211142Z 13012KT 01/M01 A2996 RMK A01 T00141013  RH  082%=      5-min Rain = 0
KOD1 211143Z 13011KT 01/M01 A2996 RMK A01 T00141013  RH  082%=      5-min Rain = 0
KOD1 211144Z 14010KT 01/M01 A2996 RMK A01 T00141013  RH  082%=      5-min Rain = 0
KOD1 211145Z 14012KT 01/M01 A2995 RMK A01 T00141013  RH  083%=      5-min Rain = 0
KOD1 211146Z 14011KT 01/M01 A2995 RMK A01 T00141013  RH  083%=      5-min Rain = 0
KOD1 211147Z 14012KT 01/M01 A2995 RMK A01 T00141013  RH  082%=      5-min Rain = 0
KOD1 211148Z 14011KT 01/M01 A2995 RMK A01 T00141013  RH  083%=      5-min Rain = 0
KOD1 211149Z 13011KT 01/M01 A2995 RMK A01 T00141013  RH  083%=      5-min Rain = 0
KOD1 211150Z 13011KT 01/M01 A2995 RMK A01 T00131013  RH  083%=      5-min Rain = 0
KOD1 211151Z 14010KT 01/M01 A2995 RMK A01 T00131013  RH  083%=      5-min Rain = 0
KOD1 211152Z 13010KT 01/M01 A2995 RMK A01 T00131013  RH  083%=      5-min Rain = 0
KOD1 211153Z 13010KT 01/M01 A2995 RMK A01 T00131013  RH  083%=      5-min Rain = 0
KOD1 211154Z 14010KT 01/M01 A2995 RMK A01 T00131013  RH  083%=      5-min Rain = 0
KOD1 211155Z 14011KT 01/M01 A2995 RMK A01 T00131012  RH  084%=      5-min Rain = 0
KOD1 211156Z 14010KT 01/M01 A2995 RMK A01 T00131012  RH  084%=      5-min Rain = 0
KOD1 211157Z 13011KT 01/M01 A2995 RMK A01 T00131012  RH  084%=      5-min Rain = 0
KOD1 211158Z 14011KT 01/M01 A2995 RMK A01 T00141012  RH  083%=      5-min Rain = 0
KOD1 211159Z 13011KT 01/M01 A2995 RMK A01 T00141012  RH  083%=      5-min Rain = 0
KOD1 211200Z 14011KT 01/M01 A2995 RMK A01 T00131012  RH  083%=      5-min Rain = 0
KOD1 211201Z 14012KT 01/M01 A2995 RMK A01 T00141011  RH  083%=      5-min Rain = 0
KOD1 211202Z 13011KT 01/M01 A2995 RMK A01 T00141012  RH  083%=      5-min Rain = 0
KOD1 211203Z 13010KT 01/M01 A2995 RMK A01 T00131012  RH  083%=      5-min Rain = 0
KOD1 211204Z 13011KT 01/M01 A2995 RMK A01 T00131012  RH  083%=      5-min Rain = 0
KOD1 211205Z 13011KT 01/M01 A2995 RMK A01 T00131012  RH  084%=      5-min Rain = 0
KOD1 211206Z 14010KT 01/M01 A2995 RMK A01 T00131011  RH  084%=      5-min Rain = 0
KOD1 211207Z 14010KT 01/M01 A2995 RMK A01 T00131012  RH  084%=      5-min Rain = 0
KOD1 211208Z 13011KT 01/M01 A2995 RMK A01 T00131012  RH  084%=      5-min Rain = 0
KOD1 211209Z 13011KT 01/M01 A2995 RMK A01 T00131012  RH  084%=      5-min Rain = 0
KOD1 211210Z 13011KT 01/M01 A2995 RMK A01 T00131011  RH  084%=      5-min Rain = 0
KOD1 211211Z 14011KT 01/M01 A2995 RMK A01 T00131011  RH  084%=      5-min Rain = 0
KOD1 211212Z 14012KT 01/M01 A2995 RMK A01 T00131011  RH  084%=      5-min Rain = 0
KOD1 211213Z 14010KT 01/M01 A2995 RMK A01 T00141011  RH  084%=      5-min Rain = 0
KOD1 211214Z 14012KT 01/M01 A2994 RMK A01 T00141011  RH  084%=      5-min Rain = 0
KOD1 211215Z 14012KT 02/M01 A2994 RMK A01 T00151010  RH  084%=      5-min Rain = 0
KOD1 211216Z 14011KT 02/M01 A2994 RMK A01 T00151010  RH  083%=      5-min Rain = 0
KOD1 211217Z 14011KT 02/M01 A2994 RMK A01 T00151011  RH  083%=      5-min Rain = 0
KOD1 211218Z 14012KT 02/M01 A2994 RMK A01 T00151010  RH  084%=      5-min Rain = 0
KOD1 211219Z 14011KT 02/M01 A2994 RMK A01 T00151010  RH  083%=      5-min Rain = 0
KOD1 211220Z 14011KT 01/M01 A2994 RMK A01 T00141011  RH  083%=      5-min Rain = 0
KOD1 211221Z 14010KT 01/M01 A2994 RMK A01 T00141010  RH  084%=      5-min Rain = 0
KOD1 211222Z 14011KT 01/M01 A2994 RMK A01 T00141010  RH  084%=      5-min Rain = 0
KOD1 211223Z 14010KT 01/M01 A2994 RMK A01 T00141011  RH  084%=      5-min Rain = 0
KOD1 211224Z 14011KT 01/M01 A2994 RMK A01 T00141010  RH  084%=      5-min Rain = 0
KOD1 211225Z 14011KT 01/M01 A2994 RMK A01 T00141010  RH  084%=      5-min Rain = 0
KOD1 211226Z 14012KT 01/M01 A2994 RMK A01 T00141010  RH  084%=      5-min Rain = 0
KOD1 211227Z 14012KT 02/M01 A2994 RMK A01 T00151009  RH  084%=      5-min Rain = 0
KOD1 211228Z 14011KT 02/M01 A2994 RMK A01 T00151010  RH  084%=      5-min Rain = 0
KOD1 211229Z 14011KT 02/M01 A2994 RMK A01 T00151009  RH  084%=      5-min Rain = 0
KOD1 211230Z 14012G17KT 02/M01 A2994 RMK A01 T00151009  RH  084%=      5-min Rain = 0
KOD1 211231Z 14013KT 02/M01 A2995 RMK A01 T00161009  RH  083%=      5-min Rain = 0
KOD1 211232Z 14013KT 02/M01 A2995 RMK A01 T00161009  RH  083%=      5-min Rain = 0
KOD1 211233Z 14012KT 02/M01 A2995 RMK A01 T00161009  RH  084%=      5-min Rain = 0
KOD1 211234Z 15012KT 02/M01 A2995 RMK A01 T00161009  RH  083%=      5-min Rain = 0
KOD1 211235Z 14012KT 02/M01 A2995 RMK A01 T00161009  RH  083%=      5-min Rain = 0
KOD1 211236Z 15012KT 02/M01 A2995 RMK A01 T00151009  RH  084%=      5-min Rain = 0
KOD1 211237Z 14012KT 02/M01 A2995 RMK A01 T00151009  RH  084%=      5-min Rain = 0
KOD1 211238Z 14012KT 02/M01 A2995 RMK A01 T00151009  RH  084%=      5-min Rain = 0
KOD1 211239Z 15012KT 02/M01 A2995 RMK A01 T00151009  RH  084%=      5-min Rain = 0
KOD1 211240Z 14012KT 02/M01 A2995 RMK A01 T00151009  RH  084%=      5-min Rain = 0
KOD1 211241Z 15013KT 02/M01 A2995 RMK A01 T00151009  RH  084%=      5-min Rain = 0
KOD1 211242Z 15012KT 02/M01 A2995 RMK A01 T00151008  RH  084%=      5-min Rain = 0
KOD1 211243Z 15014KT 02/M01 A2995 RMK A01 T00161008  RH  084%=      5-min Rain = 0
KOD1 211244Z 15012KT 02/M01 A2995 RMK A01 T00171008  RH  084%=      5-min Rain = 0
KOD1 211245Z 15012KT 02/M01 A2995 RMK A01 T00161009  RH  083%=      5-min Rain = 0
KOD1 211246Z 15012KT 02/M01 A2995 RMK A01 T00161008  RH  084%=      5-min Rain = 0
KOD1 211247Z 15013KT 02/M01 A2995 RMK A01 T00171008  RH  084%=      5-min Rain = 0
KOD1 211248Z 15012KT 02/M01 A2995 RMK A01 T00171008  RH  084%=      5-min Rain = 0
KOD1 211249Z 15012KT 02/M01 A2995 RMK A01 T00171008  RH  084%=      5-min Rain = 0
KOD1 211250Z 15013KT 02/M01 A2995 RMK A01 T00171008  RH  084%=      5-min Rain = 0
KOD1 211251Z 15013KT 02/M01 A2995 RMK A01 T00171007  RH  084%=      5-min Rain = 0
KOD1 211252Z 15014KT 02/M01 A2995 RMK A01 T00181007  RH  083%=      5-min Rain = 0
KOD1 211253Z 15013KT 02/M01 A2995 RMK A01 T00191007  RH  083%=      5-min Rain = 0
KOD1 211254Z 15013KT 02/M01 A2995 RMK A01 T00191007  RH  083%=      5-min Rain = 0
KOD1 211255Z 15013KT 02/M01 A2995 RMK A01 T00191007  RH  083%=      5-min Rain = 0
KOD1 211256Z 15013KT 02/M01 A2995 RMK A01 T00191007  RH  083%=      5-min Rain = 0
KOD1 211257Z 15012KT 02/M01 A2995 RMK A01 T00191007  RH  083%=      5-min Rain = 0
KOD1 211258Z 15012KT 02/M01 A2995 RMK A01 T00191007  RH  083%=      5-min Rain = 0
KOD1 211259Z 15014KT 02/M01 A2995 RMK A01 T00191007  RH  083%=      5-min Rain = 0
KOD1 211300Z 15012KT 02/M01 A2995 RMK A01 T00191007  RH  083%=      5-min Rain = 0
KOD1 211301Z 15012KT 02/M01 A2995 RMK A01 T00191007  RH  083%=      5-min Rain = 0
KOD1 211302Z 15014KT 02/M01 A2995 RMK A01 T00191007  RH  083%=      5-min Rain = 0
KOD1 211303Z 15013KT 02/M01 A2995 RMK A01 T00201007  RH  083%=      5-min Rain = 0
KOD1 211304Z 15013KT 02/M01 A2995 RMK A01 T00201007  RH  083%=      5-min Rain = 0
KOD1 211305Z 15013KT 02/M01 A2995 RMK A01 T00201007  RH  082%=      5-min Rain = 0
KOD1 211306Z 15012KT 02/M01 A2995 RMK A01 T00191007  RH  082%=      5-min Rain = 0
KOD1 211307Z 15013KT 02/M01 A2995 RMK A01 T00191008  RH  083%=      5-min Rain = 0
KOD1 211308Z 15013KT 02/M01 A2995 RMK A01 T00191007  RH  083%=      5-min Rain = 0
KOD1 211309Z 15012KT 02/M01 A2995 RMK A01 T00191008  RH  083%=      5-min Rain = 0
KOD1 211310Z 15011KT 02/M01 A2995 RMK A01 T00191008  RH  083%=      5-min Rain = 0
KOD1 211311Z 15011KT 02/M01 A2995 RMK A01 T00191007  RH  083%=      5-min Rain = 0
KOD1 211312Z 15012KT 02/M01 A2995 RMK A01 T00191007  RH  083%=      5-min Rain = 0
KOD1 211313Z 14012KT 02/M01 A2995 RMK A01 T00191007  RH  083%=      5-min Rain = 0
KOD1 211314Z 14013KT 02/M01 A2995 RMK A01 T00191007  RH  083%=      5-min Rain = 0
KOD1 211315Z 15012KT 02/M01 A2995 RMK A01 T00201007  RH  083%=      5-min Rain = 0
KOD1 211316Z 14013KT 02/M01 A2995 RMK A01 T00201007  RH  082%=      5-min Rain = 0
KOD1 211317Z 14013KT 02/M01 A2995 RMK A01 T00201007  RH  082%=      5-min Rain = 0
KOD1 211318Z 15012KT 02/M01 A2995 RMK A01 T00201007  RH  082%=      5-min Rain = 0
KOD1 211319Z 14011KT 02/M01 A2995 RMK A01 T00191007  RH  083%=      5-min Rain = 0
KOD1 211320Z 14012KT 02/M01 A2995 RMK A01 T00191007  RH  083%=      5-min Rain = 0
KOD1 211321Z 14011KT 02/M01 A2995 RMK A01 T00191007  RH  083%=      5-min Rain = 0
KOD1 211322Z 14012KT 02/M01 A2995 RMK A01 T00191007  RH  083%=      5-min Rain = 0
KOD1 211323Z 14011KT 02/M01 A2995 RMK A01 T00201007  RH  083%=      5-min Rain = 0
KOD1 211324Z 14013KT 02/M01 A2995 RMK A01 T00201006  RH  083%=      5-min Rain = 0
KOD1 211325Z 15011KT 02/M01 A2995 RMK A01 T00201007  RH  083%=      5-min Rain = 0
KOD1 211326Z 14013KT 02/M01 A2995 RMK A01 T00201006  RH  083%=      5-min Rain = 0
KOD1 211327Z 15013KT 02/M01 A2995 RMK A01 T00201006  RH  083%=      5-min Rain = 0
KOD1 211328Z 14012KT 02/M01 A2995 RMK A01 T00201007  RH  083%=      5-min Rain = 0
KOD1 211329Z 15013KT 02/M01 A2995 RMK A01 T00201006  RH  083%=      5-min Rain = 0
KOD1 211330Z 15013KT 02/M01 A2995 RMK A01 T00201006  RH  083%=      5-min Rain = 0
KOD1 211331Z 15013KT 02/M01 A2996 RMK A01 T00201006  RH  083%=      5-min Rain = 0
KOD1 211332Z 15013KT 02/M01 A2996 RMK A01 T00211006  RH  083%=      5-min Rain = 0
KOD1 211333Z 15013KT 02/M01 A2996 RMK A01 T00211006  RH  082%=      5-min Rain = 0
KOD1 211334Z 14011KT 02/M01 A2996 RMK A01 T00201007  RH  082%=      5-min Rain = 0
KOD1 211335Z 15012KT 02/M01 A2996 RMK A01 T00201007  RH  083%=      5-min Rain = 0
KOD1 211336Z 14012KT 02/M01 A2996 RMK A01 T00201006  RH  083%=      5-min Rain = 0
KOD1 211337Z 14012KT 02/M01 A2996 RMK A01 T00201006  RH  083%=      5-min Rain = 0
KOD1 211338Z 14012KT 02/M01 A2996 RMK A01 T00201006  RH  083%=      5-min Rain = 0
KOD1 211339Z 14011KT 02/M01 A2996 RMK A01 T00201006  RH  083%=      5-min Rain = 0
KOD1 211340Z 15012KT 02/M01 A2996 RMK A01 T00201006  RH  083%=      5-min Rain = 0
KOD1 211341Z 14012KT 02/M01 A2996 RMK A01 T00201006  RH  083%=      5-min Rain = 0
KOD1 211342Z 15014KT 02/M01 A2996 RMK A01 T00201006  RH  083%=      5-min Rain = 0
KOD1 211343Z 15012KT 02/M01 A2996 RMK A01 T00211006  RH  082%=      5-min Rain = 0
KOD1 211344Z 15012KT 02/M01 A2995 RMK A01 T00201006  RH  082%=      5-min Rain = 0
KOD1 211345Z 14013KT 02/M01 A2995 RMK A01 T00211006  RH  083%=      5-min Rain = 0
KOD1 211346Z 15013KT 02/M01 A2995 RMK A01 T00211006  RH  082%=      5-min Rain = 0
KOD1 211347Z 15011KT 02/M01 A2995 RMK A01 T00211006  RH  082%=      5-min Rain = 0
KOD1 211348Z 14012KT 02/M01 A2995 RMK A01 T00211006  RH  083%=      5-min Rain = 0
KOD1 211349Z 14012KT 02/M01 A2995 RMK A01 T00211006  RH  082%=      5-min Rain = 0
KOD1 211350Z 14012KT 02/M01 A2995 RMK A01 T00211006  RH  082%=      5-min Rain = 0
KOD1 211351Z 14012KT 02/M01 A2995 RMK A01 T00211006  RH  082%=      5-min Rain = 0
KOD1 211352Z 15011KT 02/M01 A2995 RMK A01 T00211006  RH  082%=      5-min Rain = 0
KOD1 211353Z 15011KT 02/M01 A2995 RMK A01 T00201006  RH  083%=      5-min Rain = 0
KOD1 211354Z 15013KT 02/M01 A2995 RMK A01 T00201006  RH  083%=      5-min Rain = 0
KOD1 211355Z 15012KT 02/M01 A2995 RMK A01 T00201006  RH  083%=      5-min Rain = 0
KOD1 211356Z 15012KT 02/M01 A2995 RMK A01 T00201006  RH  083%=      5-min Rain = 0
KOD1 211357Z 15011KT 02/M01 A2995 RMK A01 T00191006  RH  083%=      5-min Rain = 0
KOD1 211358Z 15012KT 02/M01 A2995 RMK A01 T00191006  RH  083%=      5-min Rain = 0
KOD1 211359Z 15012KT 02/M01 A2995 RMK A01 T00191006  RH  083%=      5-min Rain = 0
KOD1 211400Z 14014KT 02/M01 A2995 RMK A01 T00191006  RH  083%=      5-min Rain = 0
KOD1 211401Z 15012KT 02/M01 A2995 RMK A01 T00191006  RH  083%=      5-min Rain = 0
KOD1 211402Z 15013KT 02/M01 A2995 RMK A01 T00191006  RH  083%=      5-min Rain = 0
KOD1 211403Z 14013KT 02/M01 A2995 RMK A01 T00191006  RH  084%=      5-min Rain = 0
KOD1 211404Z 14012KT 02/M01 A2995 RMK A01 T00191006  RH  084%=      5-min Rain = 0
KOD1 211405Z 15014KT 02/M01 A2995 RMK A01 T00191006  RH  084%=      5-min Rain = 0
KOD1 211406Z 14014KT 02/M01 A2994 RMK A01 T00191006  RH  083%=      5-min Rain = 0
KOD1 211407Z 14014KT 02/M01 A2994 RMK A01 T00191006  RH  083%=      5-min Rain = 0
KOD1 211408Z 14013KT 02/M01 A2994 RMK A01 T00201006  RH  083%=      5-min Rain = 0
KOD1 211409Z 15013KT 02/M01 A2994 RMK A01 T00201006  RH  083%=      5-min Rain = 0
KOD1 211410Z 14014KT 02/M01 A2994 RMK A01 T00201005  RH  083%=      5-min Rain = 0
KOD1 211411Z 14015KT 02/M01 A2994 RMK A01 T00201005  RH  083%=      5-min Rain = 0
KOD1 211412Z 14013KT 02/M01 A2993 RMK A01 T00211005  RH  083%=      5-min Rain = 0
KOD1 211413Z 15014KT 02/M01 A2993 RMK A01 T00211005  RH  083%=      5-min Rain = 0
KOD1 211414Z 14015KT 02/M01 A2993 RMK A01 T00211005  RH  083%=      5-min Rain = 0
KOD1 211415Z 14014KT 02/M01 A2993 RMK A01 T00211005  RH  083%=      5-min Rain = 0
KOD1 211416Z 14014KT 02/M01 A2993 RMK A01 T00211005  RH  083%=      5-min Rain = 0
KOD1 211417Z 15014KT 02/M01 A2993 RMK A01 T00211005  RH  083%=      5-min Rain = 0
KOD1 211418Z 14014KT 02/M01 A2993 RMK A01 T00211005  RH  083%=      5-min Rain = 0
KOD1 211419Z 14014KT 02/M01 A2993 RMK A01 T00211005  RH  083%=      5-min Rain = 0
KOD1 211420Z 15014KT 02/M00 A2993 RMK A01 T00221004  RH  083%=      5-min Rain = 0
KOD1 211421Z 15015KT 02/M00 A2993 RMK A01 T00221004  RH  083%=      5-min Rain = 0
KOD1 211422Z 15013KT 02/M01 A2993 RMK A01 T00221005  RH  083%=      5-min Rain = 0
KOD1 211423Z 15013KT 02/M01 A2993 RMK A01 T00211005  RH  083%=      5-min Rain = 0
KOD1 211424Z 15014KT 02/M00 A2993 RMK A01 T00211004  RH  083%=      5-min Rain = 0
KOD1 211425Z 15013KT 02/M00 A2993 RMK A01 T00211004  RH  083%=      5-min Rain = 0
KOD1 211426Z 15013KT 02/M00 A2994 RMK A01 T00221004  RH  083%=      5-min Rain = 0
KOD1 211427Z 15012KT 02/M00 A2994 RMK A01 T00211004  RH  083%=      5-min Rain = 0
KOD1 211428Z 15013KT 02/M00 A2994 RMK A01 T00221004  RH  083%=      5-min Rain = 0
KOD1 211429Z 15012KT 02/M00 A2994 RMK A01 T00221004  RH  083%=      5-min Rain = 0
KOD1 211430Z 15011KT 02/M00 A2994 RMK A01 T00221003  RH  083%=      5-min Rain = 0
KOD1 211431Z 15013KT 02/M00 A2994 RMK A01 T00231003  RH  083%=      5-min Rain = 0
KOD1 211432Z 15011KT 02/M00 A2994 RMK A01 T00231003  RH  083%=      5-min Rain = 0
KOD1 211433Z 15011KT 02/M00 A2994 RMK A01 T00231003  RH  083%=      5-min Rain = 0
KOD1 211434Z 15011KT 02/M00 A2994 RMK A01 T00231002  RH  083%=      5-min Rain = 0
KOD1 211435Z 15012KT 02/M00 A2994 RMK A01 T00241002  RH  083%=      5-min Rain = 0
KOD1 211436Z 15011KT 03/M00 A2994 RMK A01 T00251002  RH  083%=      5-min Rain = 0
KOD1 211437Z 15011KT 03/M00 A2994 RMK A01 T00251002  RH  082%=      5-min Rain = 0
KOD1 211438Z 14011KT 03/M00 A2994 RMK A01 T00251002  RH  082%=      5-min Rain = 0
KOD1 211439Z 15013KT 03/M00 A2994 RMK A01 T00251002  RH  082%=      5-min Rain = 0
KOD1 211440Z 15012KT 03/M00 A2994 RMK A01 T00261002  RH  082%=      5-min Rain = 0
KOD1 211441Z 15011KT 03/M00 A2994 RMK A01 T00261001  RH  082%=      5-min Rain = 0
KOD1 211442Z 14012KT 03/M00 A2994 RMK A01 T00271001  RH  082%=      5-min Rain = 0
KOD1 211443Z 14011KT 03/M00 A2994 RMK A01 T00271001  RH  082%=      5-min Rain = 0
KOD1 211444Z 14014KT 03/M00 A2994 RMK A01 T00281001  RH  081%=      5-min Rain = 0
KOD1 211445Z 14014KT 03/M00 A2994 RMK A01 T00291001  RH  081%=      5-min Rain = 0
KOD1 211446Z 15014KT 03/M00 A2994 RMK A01 T00291001  RH  080%=      5-min Rain = 0
KOD1 211447Z 14012KT 03/M00 A2994 RMK A01 T00301001  RH  080%=      5-min Rain = 0
KOD1 211448Z 14014KT 03/M00 A2994 RMK A01 T00301001  RH  080%=      5-min Rain = 0
KOD1 211449Z 15014KT 03/M00 A2994 RMK A01 T00301001  RH  080%=      5-min Rain = 0
KOD1 211450Z 14011KT 03/M00 A2994 RMK A01 T00301001  RH  080%=      5-min Rain = 0
KOD1 211451Z 15012KT 03/M00 A2994 RMK A01 T00301001  RH  080%=      5-min Rain = 0
KOD1 211452Z 14011KT 03/00 A2994 RMK A01 T003000-0  RH  080%=      5-min Rain = 0
KOD1 211453Z 15012KT 03/00 A2994 RMK A01 T003100-0  RH  080%=      5-min Rain = 0
KOD1 211454Z 15011KT 03/M00 A2994 RMK A01 T00311001  RH  080%=      5-min Rain = 0
KOD1 211455Z 14010KT 03/00 A2995 RMK A01 T00310000  RH  080%=      5-min Rain = 0
KOD1 211456Z 15011KT 03/00 A2995 RMK A01 T00310000  RH  080%=      5-min Rain = 0
KOD1 211457Z 15012KT 03/00 A2995 RMK A01 T00310000  RH  080%=      5-min Rain = 0
KOD1 211458Z 15013KT 03/00 A2995 RMK A01 T00320000  RH  080%=      5-min Rain = 0
KOD1 211459Z 15012KT 03/00 A2995 RMK A01 T00320000  RH  080%=      5-min Rain = 0
KOD1 211500Z 15011KT 03/00 A2995 RMK A01 T00330001  RH  080%=      5-min Rain = 0
KOD1 211501Z 16011KT 03/00 A2995 RMK A01 T00330001  RH  080%=      5-min Rain = 0
KOD1 211502Z 15012KT 03/00 A2995 RMK A01 T00330001  RH  079%=      5-min Rain = 0
KOD1 211503Z 15012KT 03/00 A2995 RMK A01 T00340001  RH  079%=      5-min Rain = 0
KOD1 211504Z 15012KT 03/00 A2995 RMK A01 T00340001  RH  079%=      5-min Rain = 0
KOD1 211505Z 15011KT 04/00 A2995 RMK A01 T00350002  RH  079%=      5-min Rain = 0
KOD1 211506Z 15012KT 04/00 A2995 RMK A01 T00350002  RH  079%=      5-min Rain = 0
KOD1 211507Z 15012KT 04/00 A2995 RMK A01 T00350002  RH  079%=      5-min Rain = 0
KOD1 211508Z 15010KT 04/00 A2995 RMK A01 T00360003  RH  079%=      5-min Rain = 0
KOD1 211509Z 15013KT 04/00 A2995 RMK A01 T00360003  RH  079%=      5-min Rain = 0
KOD1 211510Z 15013KT 04/00 A2995 RMK A01 T00370002  RH  078%=      5-min Rain = 0
KOD1 211511Z 15012KT 04/00 A2995 RMK A01 T00370003  RH  078%=      5-min Rain = 0
KOD1 211512Z 15013KT 04/00 A2995 RMK A01 T00380003  RH  078%=      5-min Rain = 0
KOD1 211513Z 15012KT 04/00 A2995 RMK A01 T00390003  RH  078%=      5-min Rain = 0
KOD1 211514Z 15012KT 04/00 A2995 RMK A01 T00390003  RH  077%=      5-min Rain = 0
KOD1 211515Z 15011KT 04/00 A2995 RMK A01 T00390003  RH  077%=      5-min Rain = 0
KOD1 211516Z 16011KT 04/00 A2995 RMK A01 T00400004  RH  077%=      5-min Rain = 0
KOD1 211517Z 15011KT 04/00 A2995 RMK A01 T00410004  RH  077%=      5-min Rain = 0
KOD1 211518Z 15012KT 04/00 A2995 RMK A01 T00410004  RH  077%=      5-min Rain = 0
KOD1 211519Z 15011KT 04/00 A2995 RMK A01 T00420004  RH  077%=      5-min Rain = 0
KOD1 211520Z 15011KT 04/01 A2995 RMK A01 T00420005  RH  077%=      5-min Rain = 0
KOD1 211521Z 15012KT 04/01 A2995 RMK A01 T00430005  RH  076%=      5-min Rain = 0
KOD1 211522Z 15012KT 04/01 A2995 RMK A01 T00430005  RH  076%=      5-min Rain = 0
KOD1 211523Z 15013KT 04/01 A2995 RMK A01 T00440005  RH  076%=      5-min Rain = 0
KOD1 211524Z 15012KT 05/01 A2995 RMK A01 T00450005  RH  076%=      5-min Rain = 0
KOD1 211525Z 15013KT 05/01 A2995 RMK A01 T00450006  RH  075%=      5-min Rain = 0
KOD1 211526Z 15013KT 05/01 A2995 RMK A01 T00460006  RH  075%=      5-min Rain = 0
KOD1 211527Z 15013KT 05/01 A2995 RMK A01 T00470006  RH  075%=      5-min Rain = 0
KOD1 211528Z 16013KT 05/01 A2994 RMK A01 T00480006  RH  074%=      5-min Rain = 0
KOD1 211529Z 15014KT 05/01 A2994 RMK A01 T00490006  RH  074%=      5-min Rain = 0
KOD1 211530Z 15014KT 05/01 A2994 RMK A01 T00490006  RH  074%=      5-min Rain = 0
KOD1 211531Z 15014KT 05/01 A2994 RMK A01 T00500007  RH  073%=      5-min Rain = 0
KOD1 211532Z 15015KT 05/01 A2994 RMK A01 T00510006  RH  073%=      5-min Rain = 0
KOD1 211533Z 15014KT 05/01 A2994 RMK A01 T00520005  RH  072%=      5-min Rain = 0
KOD1 211534Z 15013KT 05/01 A2994 RMK A01 T00520007  RH  072%=      5-min Rain = 0
KOD1 211535Z 16014KT 05/01 A2994 RMK A01 T00530006  RH  072%=      5-min Rain = 0
KOD1 211536Z 16014KT 05/01 A2994 RMK A01 T00530006  RH  072%=      5-min Rain = 0
KOD1 211537Z 16014KT 05/01 A2994 RMK A01 T00530006  RH  072%=      5-min Rain = 0
KOD1 211538Z 16014KT 05/01 A2994 RMK A01 T00530006  RH  072%=      5-min Rain = 0
KOD1 211539Z 16015KT 05/01 A2994 RMK A01 T00530006  RH  072%=      5-min Rain = 0
KOD1 211540Z 16012KT 05/01 A2994 RMK A01 T00530007  RH  072%=      5-min Rain = 0
KOD1 211541Z 16013KT 05/01 A2994 RMK A01 T00540007  RH  072%=      5-min Rain = 0
KOD1 211542Z 16013KT 06/01 A2994 RMK A01 T00550007  RH  071%=      5-min Rain = 0
KOD1 211543Z 16014KT 06/01 A2994 RMK A01 T00550006  RH  071%=      5-min Rain = 0
KOD1 211544Z 16015KT 06/01 A2994 RMK A01 T00560006  RH  070%=      5-min Rain = 0
KOD1 211545Z 16016KT 06/01 A2993 RMK A01 T00560006  RH  070%=      5-min Rain = 0
KOD1 211546Z 16014KT 06/01 A2993 RMK A01 T00570006  RH  070%=      5-min Rain = 0
KOD1 211547Z 16014KT 06/01 A2993 RMK A01 T00570007  RH  070%=      5-min Rain = 0
KOD1 211548Z 16014KT 06/01 A2993 RMK A01 T00580007  RH  070%=      5-min Rain = 0
KOD1 211549Z 16015KT 06/01 A2993 RMK A01 T00590007  RH  069%=      5-min Rain = 0
KOD1 211550Z 16016KT 06/01 A2993 RMK A01 T00600007  RH  069%=      5-min Rain = 0
KOD1 211551Z 16016KT 06/01 A2993 RMK A01 T00610006  RH  068%=      5-min Rain = 0
KOD1 211552Z 16015KT 06/01 A2993 RMK A01 T00620007  RH  068%=      5-min Rain = 0
KOD1 211553Z 16017KT 06/01 A2993 RMK A01 T00620007  RH  068%=      5-min Rain = 0
KOD1 211554Z 16015KT 06/01 A2993 RMK A01 T00630008  RH  068%=      5-min Rain = 0
KOD1 211555Z 16016KT 06/01 A2993 RMK A01 T00640009  RH  068%=      5-min Rain = 0
KOD1 211556Z 16018KT 07/01 A2993 RMK A01 T00650008  RH  067%=      5-min Rain = 0
KOD1 211557Z 16016KT 07/01 A2992 RMK A01 T00680010  RH  067%=      5-min Rain = 0
KOD1 211558Z 16016KT 07/01 A2992 RMK A01 T00700011  RH  066%=      5-min Rain = 0
KOD1 211559Z 16016G21KT 07/01 A2992 RMK A01 T00720010  RH  065%=      5-min Rain = 0
KOD1 211600Z 16017KT 07/01 A2992 RMK A01 T00730011  RH  064%=      5-min Rain = 0
KOD1 211601Z 16019KT 07/01 A2992 RMK A01 T00740008  RH  063%=      5-min Rain = 0
KOD1 211602Z 16020KT 08/01 A2992 RMK A01 T00750009  RH  063%=      5-min Rain = 0
KOD1 211603Z 16021KT 08/01 A2992 RMK A01 T00750008  RH  062%=      5-min Rain = 0
KOD1 211604Z 16019KT 08/01 A2992 RMK A01 T00760008  RH  062%=      5-min Rain = 0
KOD1 211605Z 16018KT 08/01 A2992 RMK A01 T00770009  RH  062%=      5-min Rain = 0
KOD1 211606Z 17020KT 08/01 A2992 RMK A01 T00780009  RH  061%=      5-min Rain = 0
KOD1 211607Z 16021KT 08/01 A2992 RMK A01 T00790010  RH  062%=      5-min Rain = 0
KOD1 211608Z 16020KT 08/01 A2991 RMK A01 T00800009  RH  061%=      5-min Rain = 0
KOD1 211609Z 16020KT 08/01 A2991 RMK A01 T00800010  RH  061%=      5-min Rain = 0
KOD1 211610Z 16018G23KT 08/01 A2991 RMK A01 T00820011  RH  061%=      5-min Rain = 0
KOD1 211611Z 16019KT 08/01 A2991 RMK A01 T00830010  RH  060%=      5-min Rain = 0
KOD1 211612Z 16020KT 08/01 A2991 RMK A01 T00830009  RH  060%=      5-min Rain = 0
KOD1 211613Z 16022KT 08/01 A2991 RMK A01 T00840008  RH  059%=      5-min Rain = 0
KOD1 211614Z 16022KT 08/01 A2991 RMK A01 T00830008  RH  059%=      5-min Rain = 0
KOD1 211615Z 16020KT 09/01 A2991 RMK A01 T00850009  RH  059%=      5-min Rain = 0
KOD1 211616Z 16022KT 09/01 A2991 RMK A01 T00850008  RH  058%=      5-min Rain = 0
KOD1 211617Z 16021KT 09/01 A2991 RMK A01 T00850007  RH  058%=      5-min Rain = 0
KOD1 211618Z 17022KT 08/01 A2991 RMK A01 T00840007  RH  058%=      5-min Rain = 0
KOD1 211619Z 16023KT 08/01 A2991 RMK A01 T00840006  RH  058%=      5-min Rain = 0
KOD1 211620Z 17020KT 08/01 A2991 RMK A01 T00840008  RH  059%=      5-min Rain = 0
KOD1 211621Z 16020KT 09/01 A2991 RMK A01 T00850008  RH  058%=      5-min Rain = 0
KOD1 211622Z 17019KT 09/01 A2991 RMK A01 T00870010  RH  058%=      5-min Rain = 0
KOD1 211623Z 16021KT 09/01 A2991 RMK A01 T00870008  RH  057%=      5-min Rain = 0
KOD1 211624Z 16020KT 09/01 A2991 RMK A01 T00870007  RH  057%=      5-min Rain = 0
KOD1 211625Z 16019KT 09/01 A2991 RMK A01 T00870008  RH  058%=      5-min Rain = 0
KOD1 211626Z 16021KT 09/01 A2991 RMK A01 T00860007  RH  058%=      5-min Rain = 0
KOD1 211627Z 16020KT 09/01 A2991 RMK A01 T00860007  RH  058%=      5-min Rain = 0
KOD1 211628Z 17018KT 09/01 A2991 RMK A01 T00870009  RH  058%=      5-min Rain = 0
KOD1 211629Z 16017KT 09/01 A2991 RMK A01 T00890009  RH  057%=      5-min Rain = 0
KOD1 211630Z 17016KT 09/01 A2991 RMK A01 T00900009  RH  057%=      5-min Rain = 0
KOD1 211631Z 17018KT 09/01 A2991 RMK A01 T00900009  RH  057%=      5-min Rain = 0
KOD1 211632Z 17017KT 09/01 A2991 RMK A01 T00910009  RH  057%=      5-min Rain = 0
KOD1 211633Z 16019KT 09/01 A2991 RMK A01 T00930011  RH  056%=      5-min Rain = 0
KOD1 211634Z 16021KT 09/01 A2991 RMK A01 T00940009  RH  055%=      5-min Rain = 0
KOD1 211635Z 17018KT 09/01 A2991 RMK A01 T00940009  RH  055%=      5-min Rain = 0
KOD1 211636Z 16020KT 10/01 A2991 RMK A01 T00950009  RH  055%=      5-min Rain = 0
KOD1 211637Z 16019KT 10/01 A2991 RMK A01 T00960009  RH  055%=      5-min Rain = 0
KOD1 211638Z 17016KT 10/01 A2991 RMK A01 T00960009  RH  055%=      5-min Rain = 0
KOD1 211639Z 17015KT 10/01 A2991 RMK A01 T00980012  RH  055%=      5-min Rain = 0
KOD1 211640Z 16016KT 10/01 A2991 RMK A01 T01000012  RH  054%=      5-min Rain = 0
KOD1 211641Z 17016KT 10/01 A2991 RMK A01 T01010011  RH  054%=      5-min Rain = 0
KOD1 211642Z 17019KT 10/01 A2991 RMK A01 T01010010  RH  053%=      5-min Rain = 0
KOD1 211643Z 16020KT 10/01 A299 RMK A01 T00990008  RH  053%=      5-min Rain = 0
KOD1 211644Z 17019KT 10/01 A299 RMK A01 T00980008  RH  053%=      5-min Rain = 0
KOD1 211645Z 17019KT 10/01 A299 RMK A01 T00970008  RH  054%=      5-min Rain = 0
KOD1 211646Z 16017KT 10/01 A299 RMK A01 T00960008  RH  054%=      5-min Rain = 0
KOD1 211647Z 16017KT 10/01 A299 RMK A01 T00960009  RH  055%=      5-min Rain = 0
KOD1 211648Z 16020G26KT 10/01 A299 RMK A01 T00970008  RH  054%=      5-min Rain = 0
KOD1 211649Z 16021KT 10/01 A299 RMK A01 T00970007  RH  053%=      5-min Rain = 0
KOD1 211650Z 16021KT 10/01 A299 RMK A01 T00960006  RH  053%=      5-min Rain = 0
KOD1 211651Z 16020KT 10/01 A299 RMK A01 T00960006  RH  054%=      5-min Rain = 0
KOD1 211652Z 16021KT 10/01 A299 RMK A01 T00950005  RH  053%=      5-min Rain = 0
KOD1 211653Z 17020KT 10/01 A299 RMK A01 T00950006  RH  054%=      5-min Rain = 0
KOD1 211654Z 16020KT 10/01 A299 RMK A01 T00950006  RH  054%=      5-min Rain = 0
KOD1 211655Z 16021KT 10/01 A2989 RMK A01 T00950006  RH  054%=      5-min Rain = 0
KOD1 211656Z 16021KT 10/01 A2989 RMK A01 T00950005  RH  053%=      5-min Rain = 0
KOD1 211657Z 17020KT 10/01 A2989 RMK A01 T00950005  RH  053%=      5-min Rain = 0
KOD1 211658Z 17017KT 10/01 A2989 RMK A01 T00960007  RH  054%=      5-min Rain = 0
KOD1 211659Z 16019KT 10/01 A2989 RMK A01 T00970008  RH  054%=      5-min Rain = 0
KOD1 211700Z 16020KT 10/01 A2989 RMK A01 T00970006  RH  053%=      5-min Rain = 0
KOD1 211701Z 17020KT 10/01 A2989 RMK A01 T00970006  RH  053%=      5-min Rain = 0
KOD1 211702Z 17020KT 10/01 A2989 RMK A01 T00970007  RH  053%=      5-min Rain = 0
KOD1 211703Z 17016KT 10/01 A2989 RMK A01 T00980009  RH  054%=      5-min Rain = 0
KOD1 211704Z 17020KT 10/01 A2989 RMK A01 T00990008  RH  053%=      5-min Rain = 0
KOD1 211705Z 16020KT 10/01 A2989 RMK A01 T00990007  RH  053%=      5-min Rain = 0
KOD1 211706Z 16022G27KT 10/01 A2989 RMK A01 T00990005  RH  052%=      5-min Rain = 0
KOD1 211707Z 17022KT 10/01 A2989 RMK A01 T00990007  RH  053%=      5-min Rain = 0
KOD1 211708Z 17020KT 10/01 A2988 RMK A01 T01000007  RH  053%=      5-min Rain = 0
KOD1 211709Z 17017KT 10/01 A2989 RMK A01 T01010009  RH  053%=      5-min Rain = 0
KOD1 211710Z 17023KT 10/01 A2989 RMK A01 T01030008  RH  052%=      5-min Rain = 0
KOD1 211711Z 17024KT 11/01 A2989 RMK A01 T01050008  RH  051%=      5-min Rain = 0
KOD1 211712Z 18022KT 11/01 A2989 RMK A01 T01070010  RH  051%=      5-min Rain = 0
KOD1 211713Z 17021KT 11/01 A2989 RMK A01 T01090010  RH  050%=      5-min Rain = 0
KOD1 211714Z 17022G28KT 11/01 A2989 RMK A01 T01100010  RH  050%=      5-min Rain = 0
KOD1 211715Z 18024G30KT 11/01 A2989 RMK A01 T01110008  RH  049%=      5-min Rain = 0
KOD1 211716Z 18021KT 11/01 A2989 RMK A01 T01120010  RH  049%=      5-min Rain = 0
KOD1 211717Z 17018KT 11/01 A2988 RMK A01 T01130010  RH  049%=      5-min Rain = 0
KOD1 211718Z 17021KT 11/01 A2988 RMK A01 T01140010  RH  049%=      5-min Rain = 0
KOD1 211719Z 18020G25KT 11/01 A2988 RMK A01 T01140008  RH  048%=      5-min Rain = 0
KOD1 211720Z 17024KT 11/01 A2988 RMK A01 T01140006  RH  047%=      5-min Rain = 0
KOD1 211721Z 17019KT 12/01 A2988 RMK A01 T01150009  RH  048%=      5-min Rain = 0
KOD1 211722Z 17021KT 12/01 A2988 RMK A01 T01150008  RH  048%=      5-min Rain = 0
KOD1 211723Z 17019G24KT 12/01 A2988 RMK A01 T01150008  RH  048%=      5-min Rain = 0
KOD1 211724Z 17019KT 12/01 A2988 RMK A01 T01160010  RH  048%=      5-min Rain = 0
KOD1 211725Z 17023KT 12/01 A2988 RMK A01 T01160007  RH  047%=      5-min Rain = 0
KOD1 211726Z 17020G25KT 12/01 A2988 RMK A01 T01150009  RH  048%=      5-min Rain = 0
KOD1 211727Z 17021KT 11/01 A2988 RMK A01 T01140007  RH  048%=      5-min Rain = 0
KOD1 211728Z 17020KT 11/01 A2988 RMK A01 T01140008  RH  048%=      5-min Rain = 0
KOD1 211729Z 17019KT 11/01 A2988 RMK A01 T01140008  RH  048%=      5-min Rain = 0
KOD1 211730Z 17019KT 11/01 A2988 RMK A01 T01140008  RH  048%=      5-min Rain = 0
KOD1 211731Z 17020KT 12/01 A2988 RMK A01 T01150007  RH  047%=      5-min Rain = 0
KOD1 211732Z 17021KT 12/01 A2988 RMK A01 T01150006  RH  047%=      5-min Rain = 0
KOD1 211733Z 17021KT 12/01 A2988 RMK A01 T01150007  RH  047%=      5-min Rain = 0
KOD1 211734Z 17021KT 12/01 A2988 RMK A01 T01150007  RH  047%=      5-min Rain = 0
KOD1 211735Z 16020KT 12/01 A2988 RMK A01 T01150007  RH  047%=      5-min Rain = 0
KOD1 211736Z 17019KT 12/01 A2988 RMK A01 T01160008  RH  047%=      5-min Rain = 0
KOD1 211737Z 17022KT 12/01 A2988 RMK A01 T01170008  RH  047%=      5-min Rain = 0
KOD1 211738Z 16020KT 12/01 A2988 RMK A01 T01170007  RH  047%=      5-min Rain = 0
KOD1 211739Z 17017KT 12/01 A2988 RMK A01 T01170008  RH  047%=      5-min Rain = 0
KOD1 211740Z 16018KT 12/01 A2988 RMK A01 T01180010  RH  048%=      5-min Rain = 0
KOD1 211741Z 17017KT 12/01 A2988 RMK A01 T01190009  RH  047%=      5-min Rain = 0
KOD1 211742Z 18020KT 12/01 A2988 RMK A01 T01200008  RH  046%=      5-min Rain = 0
KOD1 211743Z 17018KT 12/01 A2988 RMK A01 T01200010  RH  047%=      5-min Rain = 0
KOD1 211744Z 18020KT 12/01 A2988 RMK A01 T01200009  RH  047%=      5-min Rain = 0
KOD1 211745Z 18020KT 12/01 A2988 RMK A01 T01200008  RH  046%=      5-min Rain = 0
KOD1 211746Z 18017KT 12/01 A2988 RMK A01 T01200012  RH  048%=      5-min Rain = 0
KOD1 211747Z 17019KT 12/01 A2988 RMK A01 T01210010  RH  046%=      5-min Rain = 0
KOD1 211748Z 17018KT 12/01 A2988 RMK A01 T01210008  RH  046%=      5-min Rain = 0
KOD1 211749Z 17018KT 12/01 A2988 RMK A01 T01210009  RH  046%=      5-min Rain = 0
KOD1 211750Z 16018KT 12/01 A2988 RMK A01 T01210009  RH  046%=      5-min Rain = 0
KOD1 211751Z 18021KT 12/01 A2988 RMK A01 T01220008  RH  046%=      5-min Rain = 0
KOD1 211752Z 19019G24KT 12/01 A2988 RMK A01 T01220009  RH  046%=      5-min Rain = 0
KOD1 211753Z 18016KT 12/01 A2988 RMK A01 T01230010  RH  046%=      5-min Rain = 0
KOD1 211754Z 17019KT 12/01 A2988 RMK A01 T01240010  RH  046%=      5-min Rain = 0
KOD1 211755Z 18019KT 12/01 A2988 RMK A01 T01240009  RH  045%=      5-min Rain = 0
KOD1 211756Z 17022KT 12/01 A2988 RMK A01 T01240009  RH  045%=      5-min Rain = 0
KOD1 211757Z 17021KT 12/01 A2988 RMK A01 T01240008  RH  045%=      5-min Rain = 0
KOD1 211758Z 18018KT 12/01 A2988 RMK A01 T01240010  RH  046%=      5-min Rain = 0
KOD1 211759Z 17017KT 13/01 A2988 RMK A01 T01250012  RH  046%=      5-min Rain = 0
KOD1 211800Z 16019KT 13/01 A2987 RMK A01 T01280011  RH  045%=      5-min Rain = 0
KOD1 211801Z 17019KT 13/01 A2988 RMK A01 T01290011  RH  045%=      5-min Rain = 0
KOD1 211802Z 17017KT 13/01 A2988 RMK A01 T01300012  RH  044%=      5-min Rain = 0
KOD1 211803Z 17018KT 13/01 A2987 RMK A01 T01300010  RH  044%=      5-min Rain = 0
KOD1 211804Z 17017KT 13/01 A2987 RMK A01 T01310010  RH  044%=      5-min Rain = 0
KOD1 211805Z 17022KT 13/01 A2987 RMK A01 T01310008  RH  043%=      5-min Rain = 0
KOD1 211806Z 18022KT 13/01 A2987 RMK A01 T01310010  RH  044%=      5-min Rain = 0
KOD1 211807Z 18023KT 13/01 A2987 RMK A01 T01310010  RH  043%=      5-min Rain = 0
KOD1 211808Z 18020KT 13/01 A2987 RMK A01 T01310009  RH  043%=      5-min Rain = 0
KOD1 211809Z 18018KT 13/01 A2987 RMK A01 T01310011  RH  044%=      5-min Rain = 0
KOD1 211810Z 18020G25KT 13/01 A2986 RMK A01 T01320009  RH  043%=      5-min Rain = 0
KOD1 211811Z 17018G23KT 13/01 A2987 RMK A01 T01330009  RH  043%=      5-min Rain = 0
KOD1 211812Z 17023KT 13/01 A2986 RMK A01 T01340008  RH  042%=      5-min Rain = 0
KOD1 211813Z 17020G25KT 13/01 A2986 RMK A01 T01340008  RH  042%=      5-min Rain = 0
KOD1 211814Z 18018G23KT 14/01 A2986 RMK A01 T01350009  RH  042%=      5-min Rain = 0
KOD1 211815Z 18019KT 14/01 A2986 RMK A01 T01360008  RH  042%=      5-min Rain = 0
KOD1 211816Z 18021KT 14/01 A2986 RMK A01 T01360005  RH  041%=      5-min Rain = 0
KOD1 211817Z 19020G26KT 14/01 A2986 RMK A01 T01360006  RH  041%=      5-min Rain = 0
KOD1 211818Z 18020KT 14/01 A2986 RMK A01 T01360007  RH  041%=      5-min Rain = 0
KOD1 211819Z 18016KT 14/01 A2986 RMK A01 T01380009  RH  041%=      5-min Rain = 0
KOD1 211820Z 18018KT 14/01 A2986 RMK A01 T01390008  RH  041%=      5-min Rain = 0
KOD1 211821Z 18020G27KT 14/01 A2986 RMK A01 T01400010  RH  041%=      5-min Rain = 0
KOD1 211822Z 17023KT 14/01 A2985 RMK A01 T01410006  RH  040%=      5-min Rain = 0
KOD1 211823Z 17021KT 14/01 A2985 RMK A01 T01420007  RH  040%=      5-min Rain = 0
KOD1 211824Z 18020G27KT 14/01 A2985 RMK A01 T01430007  RH  040%=      5-min Rain = 0
KOD1 211825Z 18025KT 14/01 A2985 RMK A01 T01430006  RH  039%=      5-min Rain = 0
KOD1 211826Z 18023KT 14/01 A2985 RMK A01 T01420006  RH  039%=      5-min Rain = 0
KOD1 211827Z 17021KT 14/01 A2985 RMK A01 T01420008  RH  040%=      5-min Rain = 0
KOD1 211828Z 17024KT 14/01 A2985 RMK A01 T01430006  RH  039%=      5-min Rain = 0
KOD1 211829Z 18024KT 14/01 A2985 RMK A01 T01430005  RH  039%=      5-min Rain = 0
KOD1 211830Z 18024KT 14/01 A2985 RMK A01 T01430006  RH  039%=      5-min Rain = 0
KOD1 211831Z 18022KT 14/01 A2985 RMK A01 T01440006  RH  039%=      5-min Rain = 0
KOD1 211832Z 17024KT 14/01 A2985 RMK A01 T01440005  RH  039%=      5-min Rain = 0
KOD1 211833Z 18022G27KT 14/01 A2985 RMK A01 T01440006  RH  039%=      5-min Rain = 0
KOD1 211834Z 18023G29KT 15/01 A2985 RMK A01 T01460007  RH  039%=      5-min Rain = 0
KOD1 211835Z 18023KT 15/00 A2985 RMK A01 T01460004  RH  038%=      5-min Rain = 0
KOD1 211836Z 17021KT 15/00 A2985 RMK A01 T01460004  RH  038%=      5-min Rain = 0
KOD1 211837Z 18021KT 15/01 A2984 RMK A01 T01470006  RH  038%=      5-min Rain = 0
KOD1 211838Z 18024KT 15/00 A2984 RMK A01 T01470004  RH  038%=      5-min Rain = 0
KOD1 211839Z 18021KT 15/01 A2984 RMK A01 T01460006  RH  038%=      5-min Rain = 0
KOD1 211840Z 18022KT 15/01 A2984 RMK A01 T01470006  RH  038%=      5-min Rain = 0
KOD1 211841Z 18022KT 15/01 A2984 RMK A01 T01470006  RH  038%=      5-min Rain = 0
KOD1 211842Z 17020KT 15/01 A2984 RMK A01 T01470007  RH  038%=      5-min Rain = 0
KOD1 211843Z 17022KT 15/01 A2983 RMK A01 T01470005  RH  038%=      5-min Rain = 0
KOD1 211844Z 17023KT 15/00 A2983 RMK A01 T01460004  RH  038%=      5-min Rain = 0
KOD1 211845Z 17023KT 15/00 A2983 RMK A01 T01450004  RH  038%=      5-min Rain = 0
KOD1 211846Z 17022KT 14/01 A2983 RMK A01 T01440005  RH  039%=      5-min Rain = 0
KOD1 211847Z 17021KT 14/01 A2983 RMK A01 T01440006  RH  039%=      5-min Rain = 0
KOD1 211848Z 17022G27KT 15/01 A2983 RMK A01 T01450005  RH  039%=      5-min Rain = 0
KOD1 211849Z 17025KT 14/00 A2983 RMK A01 T01440004  RH  038%=      5-min Rain = 0
KOD1 211850Z 17022KT 15/01 A2983 RMK A01 T01450005  RH  038%=      5-min Rain = 0
KOD1 211851Z 17020G25KT 15/01 A2983 RMK A01 T01460006  RH  038%=      5-min Rain = 0
KOD1 211852Z 16023KT 15/01 A2982 RMK A01 T01470006  RH  038%=      5-min Rain = 0
KOD1 211853Z 17021KT 15/01 A2982 RMK A01 T01480007  RH  038%=      5-min Rain = 0
KOD1 211854Z 17023KT 15/01 A2982 RMK A01 T01500006  RH  038%=      5-min Rain = 0
KOD1 211855Z 17022G27KT 15/01 A2982 RMK A01 T01500006  RH  038%=      5-min Rain = 0
KOD1 211856Z 17021KT 15/01 A2982 RMK A01 T01520008  RH  037%=      5-min Rain = 0
KOD1 211857Z 17022G27KT 15/01 A2982 RMK A01 T01530006  RH  037%=      5-min Rain = 0
KOD1 211858Z 18024KT 15/01 A2982 RMK A01 T01520005  RH  037%=      5-min Rain = 0
KOD1 211859Z 17023KT 15/01 A2982 RMK A01 T01510006  RH  037%=      5-min Rain = 0
KOD1 211900Z 16022G29KT 15/01 A2982 RMK A01 T01510007  RH  037%=      5-min Rain = 0
KOD1 211901Z 17025KT 15/01 A2981 RMK A01 T01510005  RH  037%=      5-min Rain = 0
KOD1 211902Z 17023KT 15/01 A2981 RMK A01 T01500005  RH  037%=      5-min Rain = 0
KOD1 211903Z 17018KT 15/01 A2981 RMK A01 T01510009  RH  038%=      5-min Rain = 0
KOD1 211904Z 18022KT 15/01 A2981 RMK A01 T01520008  RH  037%=      5-min Rain = 0
KOD1 211905Z 18025KT 15/01 A2981 RMK A01 T01520005  RH  037%=      5-min Rain = 0
KOD1 211906Z 17024KT 15/01 A2981 RMK A01 T01520005  RH  037%=      5-min Rain = 0
KOD1 211907Z 18023KT 15/01 A2981 RMK A01 T01510005  RH  037%=      5-min Rain = 0
KOD1 211908Z 18024KT 15/01 A2981 RMK A01 T01510006  RH  037%=      5-min Rain = 0
KOD1 211909Z 18021KT 15/01 A2981 RMK A01 T01510009  RH  038%=      5-min Rain = 0
KOD1 211910Z 18021KT 15/01 A2981 RMK A01 T01530007  RH  037%=      5-min Rain = 0
KOD1 211911Z 17021KT 15/01 A2981 RMK A01 T01530008  RH  037%=      5-min Rain = 0
KOD1 211912Z 17020KT 15/01 A2981 RMK A01 T01540009  RH  037%=      5-min Rain = 0
KOD1 211913Z 18018KT 16/01 A2981 RMK A01 T01550010  RH  038%=      5-min Rain = 0
KOD1 211914Z 18024KT 16/01 A2981 RMK A01 T01550007  RH  036%=      5-min Rain = 0
KOD1 211915Z 18022G27KT 15/01 A298 RMK A01 T01540007  RH  037%=      5-min Rain = 0
KOD1 211916Z 18024G30KT 15/01 A298 RMK A01 T01540007  RH  037%=      5-min Rain = 0
KOD1 211917Z 18026G31KT 15/01 A298 RMK A01 T01530005  RH  037%=      5-min Rain = 0
KOD1 211918Z 18024KT 15/01 A298 RMK A01 T01530007  RH  037%=      5-min Rain = 0
KOD1 211919Z 16023KT 15/01 A298 RMK A01 T01530007  RH  037%=      5-min Rain = 0
KOD1 211920Z 17023KT 15/01 A298 RMK A01 T01530010  RH  038%=      5-min Rain = 0
KOD1 211921Z 17023KT 15/01 A298 RMK A01 T01530010  RH  038%=      5-min Rain = 0
KOD1 211922Z 16023KT 15/01 A298 RMK A01 T01530012  RH  038%=      5-min Rain = 0
KOD1 211923Z 16023KT 15/01 A2979 RMK A01 T01530012  RH  038%=      5-min Rain = 0
KOD1 211924Z 16024KT 15/01 A2979 RMK A01 T01530012  RH  038%=      5-min Rain = 0
KOD1 211925Z 16023KT 15/01 A2979 RMK A01 T01540012  RH  038%=      5-min Rain = 0
KOD1 211926Z 16024KT 16/01 A2979 RMK A01 T01550010  RH  037%=      5-min Rain = 0
KOD1 211927Z 16021KT 15/01 A2979 RMK A01 T01540010  RH  037%=      5-min Rain = 0
KOD1 211928Z 16021KT 15/01 A2979 RMK A01 T01540011  RH  038%=      5-min Rain = 0
KOD1 211929Z 16019G25KT 16/01 A2979 RMK A01 T01550012  RH  038%=      5-min Rain = 0
KOD1 211930Z 16025KT 16/01 A2979 RMK A01 T01560011  RH  037%=      5-min Rain = 0
KOD1 211931Z 16023KT 16/01 A2979 RMK A01 T01550010  RH  037%=      5-min Rain = 0
KOD1 211932Z 16021KT 16/01 A2979 RMK A01 T01560011  RH  038%=      5-min Rain = 0
KOD1 211933Z 16023KT 16/01 A2979 RMK A01 T01560011  RH  037%=      5-min Rain = 0
KOD1 211934Z 16023KT 16/01 A2979 RMK A01 T01570010  RH  037%=      5-min Rain = 0
KOD1 211935Z 17019KT 16/01 A2979 RMK A01 T01580012  RH  037%=      5-min Rain = 0
KOD1 211936Z 17023KT 16/01 A2979 RMK A01 T01590009  RH  036%=      5-min Rain = 0
KOD1 211937Z 17021KT 16/01 A2979 RMK A01 T01590010  RH  036%=      5-min Rain = 0
KOD1 211938Z 16019G24KT 16/01 A2979 RMK A01 T01590014  RH  038%=      5-min Rain = 0
KOD1 211939Z 16022KT 16/01 A2979 RMK A01 T01580014  RH  038%=      5-min Rain = 0
KOD1 211940Z 16022KT 16/01 A2979 RMK A01 T01570012  RH  038%=      5-min Rain = 0
KOD1 211941Z 16019KT 16/01 A2979 RMK A01 T01560014  RH  038%=      5-min Rain = 0
KOD1 211942Z 16019KT 16/01 A2979 RMK A01 T01560014  RH  038%=      5-min Rain = 0
KOD1 211943Z 16019KT 16/01 A2979 RMK A01 T01560014  RH  038%=      5-min Rain = 0
KOD1 211944Z 18017G23KT 16/01 A2978 RMK A01 T01560014  RH  038%=      5-min Rain = 0
KOD1 211945Z 18020KT 16/02 A2978 RMK A01 T01580015  RH  038%=      5-min Rain = 0
KOD1 211946Z 16021KT 16/02 A2978 RMK A01 T01590015  RH  038%=      5-min Rain = 0
KOD1 211947Z 15020KT 16/02 A2978 RMK A01 T01590015  RH  038%=      5-min Rain = 0
KOD1 211948Z 15020G25KT 16/01 A2978 RMK A01 T01580014  RH  037%=      5-min Rain = 0
KOD1 211949Z 17018KT 16/02 A2978 RMK A01 T01580016  RH  038%=      5-min Rain = 0
KOD1 211950Z 16019G24KT 16/02 A2978 RMK A01 T01590015  RH  038%=      5-min Rain = 0
KOD1 211951Z 17019KT 16/01 A2978 RMK A01 T01600014  RH  037%=      5-min Rain = 0
KOD1 211952Z 18022G27KT 16/01 A2978 RMK A01 T01620010  RH  036%=      5-min Rain = 0
KOD1 211953Z 18027KT 16/01 A2978 RMK A01 T01630006  RH  034%=      5-min Rain = 0
KOD1 211954Z 18023KT 16/01 A2978 RMK A01 T01640007  RH  034%=      5-min Rain = 0
KOD1 211955Z 18021G26KT 17/01 A2978 RMK A01 T01650006  RH  034%=      5-min Rain = 0
KOD1 211956Z 18025KT 17/00 A2977 RMK A01 T01650004  RH  034%=      5-min Rain = 0
KOD1 211957Z 18024KT 17/00 A2977 RMK A01 T01650004  RH  034%=      5-min Rain = 0
KOD1 211958Z 18026G31KT 17/00 A2977 RMK A01 T01650004  RH  034%=      5-min Rain = 0
KOD1 211959Z 18027KT 17/00 A2977 RMK A01 T01650003  RH  033%=      5-min Rain = 0
KOD1 212000Z 18026KT 17/00 A2977 RMK A01 T01660004  RH  033%=      5-min Rain = 0
KOD1 212001Z 17022G27KT 17/01 A2977 RMK A01 T01670005  RH  033%=      5-min Rain = 0
KOD1 212002Z 17024KT 17/01 A2977 RMK A01 T01690006  RH  033%=      5-min Rain = 0
KOD1 212003Z 17025G31KT 17/00 A2977 RMK A01 T01690004  RH  033%=      5-min Rain = 0
KOD1 212004Z 17022KT 17/01 A2977 RMK A01 T01690006  RH  033%=      5-min Rain = 0
KOD1 212005Z 19022KT 17/01 A2977 RMK A01 T01700006  RH  033%=      5-min Rain = 0
KOD1 212006Z 18021KT 17/01 A2977 RMK A01 T01700007  RH  033%=      5-min Rain = 0
KOD1 212007Z 18021G28KT 17/01 A2977 RMK A01 T01710007  RH  033%=      5-min Rain = 0
KOD1 212008Z 18025G30KT 17/01 A2976 RMK A01 T01720006  RH  033%=      5-min Rain = 0
KOD1 212009Z 18026KT 17/01 A2976 RMK A01 T01720006  RH  033%=      5-min Rain = 0
KOD1 212010Z 18024KT 17/01 A2976 RMK A01 T01720007  RH  033%=      5-min Rain = 0
KOD1 212011Z 17021KT 17/01 A2976 RMK A01 T01720012  RH  034%=      5-min Rain = 0
KOD1 212012Z 16019KT 17/02 A2976 RMK A01 T01720018  RH  035%=      5-min Rain = 0
KOD1 212013Z 16018G25KT 17/02 A2976 RMK A01 T01700017  RH  036%=      5-min Rain = 0
KOD1 212014Z 15022KT 17/01 A2976 RMK A01 T01700014  RH  035%=      5-min Rain = 0
KOD1 212015Z 15019KT 17/02 A2976 RMK A01 T01690015  RH  035%=      5-min Rain = 0
KOD1 212016Z 15021KT 17/01 A2976 RMK A01 T01690014  RH  035%=      5-min Rain = 0
KOD1 212017Z 16021KT 17/02 A2976 RMK A01 T01680016  RH  036%=      5-min Rain = 0
KOD1 212018Z 15020KT 17/02 A2976 RMK A01 T01670015  RH  036%=      5-min Rain = 0
KOD1 212019Z 15021KT 17/02 A2975 RMK A01 T01680015  RH  036%=      5-min Rain = 0
KOD1 212020Z 16023KT 17/01 A2975 RMK A01 T01670014  RH  036%=      5-min Rain = 0
KOD1 212021Z 16019KT 17/02 A2976 RMK A01 T01660015  RH  036%=      5-min Rain = 0
KOD1 212022Z 16022KT 17/02 A2975 RMK A01 T01650015  RH  036%=      5-min Rain = 0
KOD1 212023Z 16020KT 16/01 A2975 RMK A01 T01640014  RH  036%=      5-min Rain = 0
KOD1 212024Z 16019KT 16/02 A2976 RMK A01 T01640016  RH  037%=      5-min Rain = 0
KOD1 212025Z 17020KT 17/02 A2976 RMK A01 T01650016  RH  037%=      5-min Rain = 0
KOD1 212026Z 16022KT 17/02 A2976 RMK A01 T01650015  RH  036%=      5-min Rain = 0
KOD1 212027Z 16019KT 17/02 A2976 RMK A01 T01650016  RH  036%=      5-min Rain = 0
KOD1 212028Z 16020KT 17/02 A2976 RMK A01 T01650015  RH  036%=      5-min Rain = 0
KOD1 212029Z 16021KT 16/02 A2976 RMK A01 T01640015  RH  037%=      5-min Rain = 0
KOD1 212030Z 16019KT 16/02 A2976 RMK A01 T01630016  RH  037%=      5-min Rain = 0
KOD1 212031Z 16018KT 16/02 A2976 RMK A01 T01640017  RH  037%=      5-min Rain = 0
KOD1 212032Z 15021KT 16/02 A2976 RMK A01 T01640016  RH  037%=      5-min Rain = 0
KOD1 212033Z 15022KT 16/02 A2975 RMK A01 T01640015  RH  037%=      5-min Rain = 0
KOD1 212034Z 15020KT 16/02 A2975 RMK A01 T01640015  RH  037%=      5-min Rain = 0
KOD1 212035Z 16019KT 16/02 A2975 RMK A01 T01640016  RH  037%=      5-min Rain = 0
KOD1 212036Z 15018G23KT 17/02 A2975 RMK A01 T01650017  RH  037%=      5-min Rain = 0
KOD1 212037Z 16018KT 17/02 A2975 RMK A01 T01660017  RH  037%=      5-min Rain = 0
KOD1 212038Z 15017KT 17/02 A2975 RMK A01 T01660018  RH  037%=      5-min Rain = 0
KOD1 212039Z 16019KT 17/02 A2975 RMK A01 T01660017  RH  037%=      5-min Rain = 0
KOD1 212040Z 16020KT 17/02 A2975 RMK A01 T01660016  RH  036%=      5-min Rain = 0
KOD1 212041Z 16017KT 17/02 A2975 RMK A01 T01660017  RH  037%=      5-min Rain = 0
KOD1 212042Z 16017KT 17/02 A2975 RMK A01 T01660019  RH  037%=      5-min Rain = 0
KOD1 212043Z 17019KT 17/02 A2975 RMK A01 T01670017  RH  036%=      5-min Rain = 0
KOD1 212044Z 17020KT 17/02 A2975 RMK A01 T01670016  RH  036%=      5-min Rain = 0
KOD1 212045Z 17016KT 17/02 A2975 RMK A01 T01670021  RH  037%=      5-min Rain = 0
KOD1 212046Z 16019KT 17/02 A2975 RMK A01 T01680018  RH  036%=      5-min Rain = 0
KOD1 212047Z 15019KT 17/02 A2975 RMK A01 T01670017  RH  036%=      5-min Rain = 0
KOD1 212048Z 15019KT 17/02 A2975 RMK A01 T01660018  RH  037%=      5-min Rain = 0
KOD1 212049Z 16017KT 17/02 A2975 RMK A01 T01670020  RH  037%=      5-min Rain = 0
KOD1 212050Z 16019KT 17/02 A2975 RMK A01 T01680019  RH  037%=      5-min Rain = 0
KOD1 212051Z 16018G23KT 17/02 A2975 RMK A01 T01700018  RH  036%=      5-min Rain = 0
KOD1 212052Z 16022KT 17/02 A2974 RMK A01 T01710016  RH  035%=      5-min Rain = 0
KOD1 212053Z 17021KT 17/02 A2974 RMK A01 T01720015  RH  035%=      5-min Rain = 0
KOD1 212054Z 16017KT 17/02 A2974 RMK A01 T01730019  RH  036%=      5-min Rain = 0
KOD1 212055Z 16019KT 17/02 A2974 RMK A01 T01740016  RH  035%=      5-min Rain = 0
KOD1 212056Z 16019G24KT 18/02 A2974 RMK A01 T01760017  RH  034%=      5-min Rain = 0
KOD1 212057Z 16016KT 18/02 A2974 RMK A01 T01760018  RH  035%=      5-min Rain = 0
KOD1 212058Z 16019KT 18/02 A2974 RMK A01 T01760018  RH  034%=      5-min Rain = 0
KOD1 212059Z 16017KT 18/02 A2975 RMK A01 T01760020  RH  035%=      5-min Rain = 0
KOD1 212100Z 16019KT 18/02 A2974 RMK A01 T01760017  RH  034%=      5-min Rain = 0
KOD1 212101Z 17020KT 18/02 A2974 RMK A01 T01750016  RH  034%=      5-min Rain = 0
KOD1 212102Z 16021KT 18/02 A2974 RMK A01 T01760015  RH  034%=      5-min Rain = 0
KOD1 212103Z 16020KT 18/01 A2974 RMK A01 T01750014  RH  034%=      5-min Rain = 0
KOD1 212104Z 17023KT 18/01 A2974 RMK A01 T01760014  RH  034%=      5-min Rain = 0
KOD1 212105Z 17018KT 18/02 A2974 RMK A01 T01760017  RH  034%=      5-min Rain = 0
KOD1 212106Z 16018G24KT 18/02 A2974 RMK A01 T01780017  RH  034%=      5-min Rain = 0
KOD1 212107Z 15021KT 18/02 A2974 RMK A01 T01780016  RH  034%=      5-min Rain = 0
KOD1 212108Z 15022KT 18/02 A2974 RMK A01 T01760015  RH  034%=      5-min Rain = 0
KOD1 212109Z 15020G26KT 18/02 A2974 RMK A01 T01750015  RH  034%=      5-min Rain = 0
KOD1 212110Z 16018KT 17/02 A2974 RMK A01 T01740017  RH  035%=      5-min Rain = 0
KOD1 212111Z 16018KT 17/02 A2974 RMK A01 T01740017  RH  035%=      5-min Rain = 0
KOD1 212112Z 16023G28KT 18/01 A2973 RMK A01 T01750014  RH  034%=      5-min Rain = 0
KOD1 212113Z 17020KT 18/01 A2973 RMK A01 T01750013  RH  034%=      5-min Rain = 0
KOD1 212114Z 17022KT 18/01 A2973 RMK A01 T01750011  RH  033%=      5-min Rain = 0
KOD1 212115Z 18022KT 18/01 A2973 RMK A01 T01760013  RH  033%=      5-min Rain = 0
KOD1 212116Z 18020KT 18/01 A2973 RMK A01 T01770014  RH  033%=      5-min Rain = 0
KOD1 212117Z 18016KT 18/01 A2973 RMK A01 T01770013  RH  033%=      5-min Rain = 0
KOD1 212118Z 17018KT 18/02 A2973 RMK A01 T01780015  RH  034%=      5-min Rain = 0
KOD1 212119Z 16017G22KT 18/02 A2973 RMK A01 T01770015  RH  034%=      5-min Rain = 0
KOD1 212120Z 17021KT 18/02 A2973 RMK A01 T01770015  RH  034%=      5-min Rain = 0
KOD1 212121Z 17017KT 18/02 A2973 RMK A01 T01770016  RH  034%=      5-min Rain = 0
KOD1 212122Z 17019KT 18/02 A2973 RMK A01 T01770016  RH  034%=      5-min Rain = 0
KOD1 212123Z 17019G24KT 18/02 A2973 RMK A01 T01770015  RH  034%=      5-min Rain = 0
KOD1 212124Z 17023KT 18/01 A2973 RMK A01 T01770013  RH  033%=      5-min Rain = 0
KOD1 212125Z 17025KT 18/01 A2972 RMK A01 T01770012  RH  033%=      5-min Rain = 0
KOD1 212126Z 17025KT 18/01 A2972 RMK A01 T01780012  RH  033%=      5-min Rain = 0
KOD1 212127Z 16019KT 18/02 A2973 RMK A01 T01780016  RH  034%=      5-min Rain = 0
KOD1 212128Z 16019KT 18/02 A2973 RMK A01 T01770016  RH  034%=      5-min Rain = 0
KOD1 212129Z 16023G28KT 18/01 A2973 RMK A01 T01770014  RH  033%=      5-min Rain = 0
KOD1 212130Z 16020KT 18/02 A2973 RMK A01 T01770015  RH  034%=      5-min Rain = 0
KOD1 212131Z 16022KT 18/02 A2973 RMK A01 T01770015  RH  034%=      5-min Rain = 0
KOD1 212132Z 16021KT 18/01 A2973 RMK A01 T01770013  RH  033%=      5-min Rain = 0
KOD1 212133Z 16018KT 18/01 A2973 RMK A01 T01760014  RH  034%=      5-min Rain = 0
KOD1 212134Z 16018KT 18/02 A2973 RMK A01 T01770017  RH  034%=      5-min Rain = 0
KOD1 212135Z 15016KT 18/02 A2973 RMK A01 T01760018  RH  034%=      5-min Rain = 0
KOD1 212136Z 15019KT 18/02 A2973 RMK A01 T01760018  RH  035%=      5-min Rain = 0
KOD1 212137Z 15018KT 18/02 A2973 RMK A01 T01750018  RH  035%=      5-min Rain = 0
KOD1 212138Z 16016KT 17/02 A2973 RMK A01 T01740019  RH  035%=      5-min Rain = 0
KOD1 212139Z 15016KT 17/02 A2973 RMK A01 T01740018  RH  035%=      5-min Rain = 0
KOD1 212140Z 16016KT 17/02 A2973 RMK A01 T01740019  RH  035%=      5-min Rain = 0
KOD1 212141Z 16014KT 17/02 A2973 RMK A01 T01740020  RH  036%=      5-min Rain = 0
KOD1 212142Z 17015KT 17/02 A2973 RMK A01 T01740019  RH  035%=      5-min Rain = 0
KOD1 212143Z 15015KT 18/02 A2973 RMK A01 T01750019  RH  035%=      5-min Rain = 0
KOD1 212144Z 15015KT 18/02 A2973 RMK A01 T01750022  RH  036%=      5-min Rain = 0
KOD1 212145Z 15015KT 18/02 A2973 RMK A01 T01750022  RH  036%=      5-min Rain = 0
KOD1 212146Z 14015KT 18/02 A2973 RMK A01 T01750021  RH  036%=      5-min Rain = 0
KOD1 212147Z 15017KT 18/02 A2973 RMK A01 T01750021  RH  036%=      5-min Rain = 0
KOD1 212148Z 15016KT 18/02 A2973 RMK A01 T01750021  RH  036%=      5-min Rain = 0
KOD1 212149Z 15013G18KT 18/02 A2973 RMK A01 T01750022  RH  036%=      5-min Rain = 0
KOD1 212150Z 15018KT 18/02 A2973 RMK A01 T01750020  RH  035%=      5-min Rain = 0
KOD1 212151Z 15014KT 17/02 A2973 RMK A01 T01740022  RH  036%=      5-min Rain = 0
KOD1 212152Z 15017KT 17/02 A2972 RMK A01 T01740021  RH  036%=      5-min Rain = 0
KOD1 212153Z 15015KT 17/02 A2973 RMK A01 T01730021  RH  036%=      5-min Rain = 0
KOD1 212154Z 15015KT 17/02 A2973 RMK A01 T01720021  RH  036%=      5-min Rain = 0
KOD1 212155Z 15013KT 17/02 A2973 RMK A01 T01720021  RH  036%=      5-min Rain = 0
KOD1 212156Z 16015KT 17/02 A2973 RMK A01 T01730022  RH  036%=      5-min Rain = 0
KOD1 212157Z 16013KT 17/02 A2973 RMK A01 T01730023  RH  036%=      5-min Rain = 0
KOD1 212158Z 16016KT 17/02 A2973 RMK A01 T01730022  RH  036%=      5-min Rain = 0
KOD1 212159Z 15015KT 17/02 A2973 RMK A01 T01740020  RH  036%=      5-min Rain = 0
KOD1 212200Z 15015KT 17/02 A2973 RMK A01 T01740021  RH  036%=      5-min Rain = 0
KOD1 212201Z 16015KT 18/02 A2973 RMK A01 T01750023  RH  036%=      5-min Rain = 0
KOD1 212202Z 15014KT 18/02 A2973 RMK A01 T01750021  RH  036%=      5-min Rain = 0
KOD1 212203Z 15016KT 17/02 A2972 RMK A01 T01740020  RH  035%=      5-min Rain = 0
KOD1 212204Z 16016KT 18/02 A2972 RMK A01 T01750020  RH  035%=      5-min Rain = 0
KOD1 212205Z 15014KT 18/02 A2972 RMK A01 T01750021  RH  035%=      5-min Rain = 0
KOD1 212206Z 16015KT 18/02 A2972 RMK A01 T01760021  RH  035%=      5-min Rain = 0
KOD1 212207Z 15016KT 18/02 A2972 RMK A01 T01770022  RH  035%=      5-min Rain = 0
KOD1 212208Z 15019KT 18/02 A2972 RMK A01 T01780019  RH  035%=      5-min Rain = 0
KOD1 212209Z 15016KT 18/02 A2972 RMK A01 T01780021  RH  035%=      5-min Rain = 0
KOD1 212210Z 15015KT 18/02 A2972 RMK A01 T01780021  RH  035%=      5-min Rain = 0
KOD1 212211Z 16018KT 18/02 A2972 RMK A01 T01770021  RH  035%=      5-min Rain = 0
KOD1 212212Z 15017KT 18/02 A2972 RMK A01 T01760021  RH  035%=      5-min Rain = 0
KOD1 212213Z 16018KT 18/02 A2972 RMK A01 T01760021  RH  035%=      5-min Rain = 0
KOD1 212214Z 15017KT 18/02 A2972 RMK A01 T01760022  RH  036%=      5-min Rain = 0
KOD1 212215Z 15017G22KT 18/02 A2972 RMK A01 T01770021  RH  035%=      5-min Rain = 0
KOD1 212216Z 15017KT 18/02 A2972 RMK A01 T01760022  RH  035%=      5-min Rain = 0
KOD1 212217Z 15017KT 18/02 A2972 RMK A01 T01760022  RH  035%=      5-min Rain = 0
KOD1 212218Z 15015KT 18/02 A2972 RMK A01 T01760022  RH  036%=      5-min Rain = 0
KOD1 212219Z 15016KT 18/02 A2972 RMK A01 T01750022  RH  036%=      5-min Rain = 0
KOD1 212220Z 15017KT 18/02 A2972 RMK A01 T01750022  RH  036%=      5-min Rain = 0
KOD1 212221Z 15017KT 17/02 A2972 RMK A01 T01740022  RH  036%=      5-min Rain = 0
KOD1 212222Z 15016KT 18/02 A2972 RMK A01 T01750022  RH  036%=      5-min Rain = 0
KOD1 212223Z 15017G22KT 18/02 A2971 RMK A01 T01760022  RH  036%=      5-min Rain = 0
KOD1 212224Z 15017KT 18/02 A2971 RMK A01 T01760021  RH  035%=      5-min Rain = 0
KOD1 212225Z 15021KT 18/02 A2971 RMK A01 T01760020  RH  035%=      5-min Rain = 0
KOD1 212226Z 15019KT 18/02 A2971 RMK A01 T01760020  RH  035%=      5-min Rain = 0
KOD1 212227Z 14018KT 18/02 A2971 RMK A01 T01760021  RH  035%=      5-min Rain = 0
KOD1 212228Z 15017KT 18/02 A2971 RMK A01 T01760021  RH  035%=      5-min Rain = 0
KOD1 212229Z 14016KT 18/02 A2971 RMK A01 T01760021  RH  035%=      5-min Rain = 0
KOD1 212230Z 15016G21KT 18/02 A2971 RMK A01 T01760020  RH  035%=      5-min Rain = 0
KOD1 212231Z 14018KT 18/02 A2971 RMK A01 T01760020  RH  035%=      5-min Rain = 0
KOD1 212232Z 15017KT 18/02 A2971 RMK A01 T01750020  RH  035%=      5-min Rain = 0
KOD1 212233Z 15016KT 18/02 A2971 RMK A01 T01750020  RH  035%=      5-min Rain = 0
KOD1 212234Z 14017KT 17/02 A2971 RMK A01 T01740020  RH  035%=      5-min Rain = 0
KOD1 212235Z 15018KT 17/02 A2971 RMK A01 T01740020  RH  035%=      5-min Rain = 0
KOD1 212236Z 14018KT 17/02 A2971 RMK A01 T01740019  RH  035%=      5-min Rain = 0
KOD1 212237Z 14018KT 17/02 A2971 RMK A01 T01740019  RH  035%=      5-min Rain = 0
KOD1 212238Z 15016KT 17/02 A2971 RMK A01 T01740020  RH  036%=      5-min Rain = 0
KOD1 212239Z 14017KT 17/02 A2971 RMK A01 T01740021  RH  036%=      5-min Rain = 0
KOD1 212240Z 14015KT 17/02 A2971 RMK A01 T01740021  RH  036%=      5-min Rain = 0
KOD1 212241Z 14016KT 17/02 A2971 RMK A01 T01740021  RH  036%=      5-min Rain = 0
KOD1 212242Z 14017KT 17/02 A2971 RMK A01 T01740020  RH  036%=      5-min Rain = 0
KOD1 212243Z 14017KT 17/02 A2971 RMK A01 T01740021  RH  036%=      5-min Rain = 0
KOD1 212244Z 15016KT 17/02 A2971 RMK A01 T01740021  RH  036%=      5-min Rain = 0
KOD1 212245Z 14017KT 17/02 A2971 RMK A01 T01740022  RH  036%=      5-min Rain = 0
KOD1 212246Z 15016KT 17/02 A2971 RMK A01 T01740022  RH  036%=      5-min Rain = 0
KOD1 212247Z 15014KT 17/02 A2971 RMK A01 T01740022  RH  036%=      5-min Rain = 0
KOD1 212248Z 15017G22KT 17/02 A2971 RMK A01 T01740022  RH  036%=      5-min Rain = 0
KOD1 212249Z 15016KT 17/02 A2971 RMK A01 T01740023  RH  036%=      5-min Rain = 0
KOD1 212250Z 15015G21KT 17/02 A2971 RMK A01 T01730023  RH  036%=      5-min Rain = 0
KOD1 212251Z 15016KT 17/02 A2971 RMK A01 T01730023  RH  037%=      5-min Rain = 0
KOD1 212252Z 15017KT 17/02 A2971 RMK A01 T01730023  RH  037%=      5-min Rain = 0
KOD1 212253Z 15017G22KT 17/02 A2971 RMK A01 T01720023  RH  037%=      5-min Rain = 0
KOD1 212254Z 14014KT 17/02 A2971 RMK A01 T01720023  RH  037%=      5-min Rain = 0
KOD1 212255Z 15018KT 17/02 A2971 RMK A01 T01720023  RH  037%=      5-min Rain = 0
KOD1 212256Z 15015KT 17/02 A2971 RMK A01 T01720023  RH  037%=      5-min Rain = 0
KOD1 212257Z 15016KT 17/02 A2971 RMK A01 T01710023  RH  037%=      5-min Rain = 0
KOD1 212258Z 15017KT 17/02 A2971 RMK A01 T01710023  RH  037%=      5-min Rain = 0
KOD1 212259Z 14016KT 17/02 A2971 RMK A01 T01710023  RH  037%=      5-min Rain = 0
KOD1 212300Z 14015KT 17/02 A297 RMK A01 T01700023  RH  037%=      5-min Rain = 0
KOD1 212301Z 14016KT 17/02 A297 RMK A01 T01700024  RH  038%=      5-min Rain = 0
KOD1 212302Z 15017KT 17/02 A297 RMK A01 T01690023  RH  037%=      5-min Rain = 0
KOD1 212303Z 14016KT 17/02 A297 RMK A01 T01690024  RH  038%=      5-min Rain = 0
KOD1 212304Z 14014KT 17/02 A297 RMK A01 T01680024  RH  038%=      5-min Rain = 0
KOD1 212305Z 15018G23KT 17/02 A297 RMK A01 T01680024  RH  038%=      5-min Rain = 0
KOD1 212306Z 15019KT 17/02 A297 RMK A01 T01680023  RH  038%=      5-min Rain = 0
KOD1 212307Z 15018G23KT 17/02 A297 RMK A01 T01670023  RH  038%=      5-min Rain = 0
KOD1 212308Z 14017KT 17/02 A297 RMK A01 T01670024  RH  038%=      5-min Rain = 0
KOD1 212309Z 14017KT 17/02 A297 RMK A01 T01660024  RH  038%=      5-min Rain = 0
KOD1 212310Z 14016KT 17/03 A297 RMK A01 T01660025  RH  039%=      5-min Rain = 0
KOD1 212311Z 15015KT 17/03 A297 RMK A01 T01650025  RH  039%=      5-min Rain = 0
KOD1 212312Z 15017KT 16/03 A297 RMK A01 T01640025  RH  039%=      5-min Rain = 0
KOD1 212313Z 15017KT 16/03 A297 RMK A01 T01630025  RH  039%=      5-min Rain = 0
KOD1 212314Z 14017KT 16/03 A297 RMK A01 T01630025  RH  039%=      5-min Rain = 0
KOD1 212315Z 15016G21KT 16/03 A297 RMK A01 T01620025  RH  040%=      5-min Rain = 0
KOD1 212316Z 15017KT 16/02 A297 RMK A01 T01620024  RH  039%=      5-min Rain = 0
KOD1 212317Z 14017KT 16/02 A297 RMK A01 T01620024  RH  040%=      5-min Rain = 0
KOD1 212318Z 15017KT 16/02 A297 RMK A01 T01620024  RH  040%=      5-min Rain = 0
KOD1 212319Z 15017KT 16/02 A297 RMK A01 T01610024  RH  040%=      5-min Rain = 0
KOD1 212320Z 15015G21KT 16/02 A297 RMK A01 T01610024  RH  040%=      5-min Rain = 0
KOD1 212321Z 15016KT 16/02 A297 RMK A01 T01600024  RH  040%=      5-min Rain = 0
KOD1 212322Z 15017KT 16/02 A297 RMK A01 T01600024  RH  040%=      5-min Rain = 0
KOD1 212323Z 15018G23KT 16/02 A297 RMK A01 T01600023  RH  040%=      5-min Rain = 0
KOD1 212324Z 15017KT 16/02 A297 RMK A01 T01610023  RH  040%=      5-min Rain = 0
KOD1 212325Z 15019G25KT 16/02 A297 RMK A01 T01600023  RH  039%=      5-min Rain = 0
KOD1 212326Z 15018KT 16/02 A297 RMK A01 T01600022  RH  039%=      5-min Rain = 0
KOD1 212327Z 15018KT 16/02 A297 RMK A01 T01610022  RH  039%=      5-min Rain = 0
KOD1 212328Z 15018KT 16/02 A297 RMK A01 T01600021  RH  039%=      5-min Rain = 0
KOD1 212329Z 15018G24KT 16/02 A297 RMK A01 T01610021  RH  039%=      5-min Rain = 0
KOD1 212330Z 15018KT 16/02 A297 RMK A01 T01600021  RH  039%=      5-min Rain = 0
KOD1 212331Z 15018KT 16/02 A297 RMK A01 T01600020  RH  039%=      5-min Rain = 0
KOD1 212332Z 15017KT 16/02 A297 RMK A01 T01600020  RH  039%=      5-min Rain = 0
KOD1 212333Z 15016KT 16/02 A297 RMK A01 T01590020  RH  039%=      5-min Rain = 0
KOD1 212334Z 15016KT 16/02 A297 RMK A01 T01590020  RH  039%=      5-min Rain = 0
KOD1 212335Z 15019G24KT 16/02 A297 RMK A01 T01590019  RH  039%=      5-min Rain = 0
KOD1 212336Z 15018KT 16/02 A297 RMK A01 T01600019  RH  039%=      5-min Rain = 0
KOD1 212337Z 15015KT 16/02 A297 RMK A01 T01590019  RH  039%=      5-min Rain = 0
KOD1 212338Z 15018KT 16/02 A297 RMK A01 T01590019  RH  039%=      5-min Rain = 0
KOD1 212339Z 15015KT 16/02 A297 RMK A01 T01580020  RH  039%=      5-min Rain = 0
KOD1 212340Z 15017KT 16/02 A297 RMK A01 T01570019  RH  039%=      5-min Rain = 0
KOD1 212341Z 15016KT 16/02 A297 RMK A01 T01570020  RH  039%=      5-min Rain = 0
KOD1 212342Z 15017KT 16/02 A297 RMK A01 T01570019  RH  040%=      5-min Rain = 0
KOD1 212343Z 15017KT 16/02 A297 RMK A01 T01560019  RH  040%=      5-min Rain = 0
KOD1 212344Z 15020G25KT 16/02 A297 RMK A01 T01560019  RH  040%=      5-min Rain = 0
KOD1 212345Z 15017KT 16/02 A297 RMK A01 T01560019  RH  040%=      5-min Rain = 0
KOD1 212346Z 15018KT 16/02 A297 RMK A01 T01550019  RH  040%=      5-min Rain = 0
KOD1 212347Z 15018KT 16/02 A297 RMK A01 T01550019  RH  040%=      5-min Rain = 0
KOD1 212348Z 15017KT 16/02 A297 RMK A01 T01550019  RH  040%=      5-min Rain = 0
KOD1 212349Z 15015KT 15/02 A297 RMK A01 T01540019  RH  040%=      5-min Rain = 0
KOD1 212350Z 15016KT 15/02 A297 RMK A01 T01530019  RH  040%=      5-min Rain = 0
KOD1 212351Z 15016G21KT 15/02 A297 RMK A01 T01530019  RH  040%=      5-min Rain = 0
KOD1 212352Z 15016KT 15/02 A297 RMK A01 T01530018  RH  040%=      5-min Rain = 0
KOD1 212353Z 15018KT 15/02 A297 RMK A01 T01520018  RH  040%=      5-min Rain = 0
KOD1 212354Z 14016KT 15/02 A297 RMK A01 T01520018  RH  040%=      5-min Rain = 0
KOD1 212355Z 15016KT 15/02 A297 RMK A01 T01520018  RH  040%=      5-min Rain = 0
KOD1 212356Z 15018KT 15/02 A297 RMK A01 T01510018  RH  040%=      5-min Rain = 0
KOD1 212357Z 15017KT 15/02 A297 RMK A01 T01510018  RH  040%=      5-min Rain = 0
KOD1 212358Z 15018KT 15/02 A297 RMK A01 T01510017  RH  040%=      5-min Rain = 0
KOD1 212359Z 15017KT 15/02 A297 RMK A01 T01500017  RH  040%=      5-min Rain = 0
KOD1 220000Z 15017KT 15/02 A297 RMK A01 T01500017  RH  041%=      5-min Rain = 0
KOD1 220001Z 15018KT 15/02 A297 RMK A01 T01500016  RH  040%=      5-min Rain = 0
KOD1 220002Z 15019KT 15/02 A297 RMK A01 T01500016  RH  040%=      5-min Rain = 0
KOD1 220003Z 15018KT 15/02 A297 RMK A01 T01500015  RH  040%=      5-min Rain = 0
KOD1 220004Z 15016KT 15/02 A297 RMK A01 T01500015  RH  040%=      5-min Rain = 0
KOD1 220005Z 15018KT 15/02 A297 RMK A01 T01500015  RH  040%=      5-min Rain = 0
KOD1 220006Z 15018KT 15/02 A297 RMK A01 T01500015  RH  040%=      5-min Rain = 0
KOD1 220007Z 14017KT 15/02 A297 RMK A01 T01490015  RH  040%=      5-min Rain = 0
KOD1 220008Z 15016KT 15/01 A297 RMK A01 T01490014  RH  040%=      5-min Rain = 0
KOD1 220009Z 15017KT 15/01 A297 RMK A01 T01490014  RH  040%=      5-min Rain = 0
KOD1 220010Z 14017KT 15/01 A297 RMK A01 T01490014  RH  040%=      5-min Rain = 0
KOD1 220011Z 15017KT 15/01 A297 RMK A01 T01490014  RH  040%=      5-min Rain = 0
KOD1 220012Z 15016KT 15/01 A297 RMK A01 T01480014  RH  040%=      5-min Rain = 0
KOD1 220013Z 14018KT 15/01 A297 RMK A01 T01480014  RH  040%=      5-min Rain = 0
KOD1 220014Z 15017KT 15/01 A297 RMK A01 T01480013  RH  040%=      5-min Rain = 0
KOD1 220015Z 15019KT 15/01 A297 RMK A01 T01480013  RH  040%=      5-min Rain = 0
KOD1 220016Z 15017KT 15/01 A297 RMK A01 T01480013  RH  040%=      5-min Rain = 0
KOD1 220017Z 14015KT 15/01 A297 RMK A01 T01470013  RH  040%=      5-min Rain = 0
KOD1 220018Z 14016KT 15/01 A297 RMK A01 T01460014  RH  040%=      5-min Rain = 0
KOD1 220019Z 14014KT 15/01 A297 RMK A01 T01450014  RH  041%=      5-min Rain = 0
KOD1 220020Z 14017KT 15/01 A297 RMK A01 T01450014  RH  041%=      5-min Rain = 0
KOD1 220021Z 14016KT 15/01 A297 RMK A01 T01450014  RH  041%=      5-min Rain = 0
KOD1 220022Z 14016G21KT 14/01 A297 RMK A01 T01440014  RH  041%=      5-min Rain = 0
KOD1 220023Z 14015KT 14/01 A297 RMK A01 T01430014  RH  042%=      5-min Rain = 0
KOD1 220024Z 14017G22KT 14/02 A297 RMK A01 T01430015  RH  042%=      5-min Rain = 0
KOD1 220025Z 14016KT 14/02 A297 RMK A01 T01430015  RH  042%=      5-min Rain = 0
KOD1 220026Z 14016KT 14/02 A297 RMK A01 T01420015  RH  042%=      5-min Rain = 0
KOD1 220027Z 14019KT 14/02 A297 RMK A01 T01420015  RH  042%=      5-min Rain = 0
KOD1 220028Z 14017KT 14/02 A297 RMK A01 T01420015  RH  042%=      5-min Rain = 0
KOD1 220029Z 14018KT 14/02 A297 RMK A01 T01420015  RH  042%=      5-min Rain = 0
KOD1 220030Z 15017KT 14/02 A297 RMK A01 T01420015  RH  042%=      5-min Rain = 0
KOD1 220031Z 14016KT 14/02 A297 RMK A01 T01410016  RH  042%=      5-min Rain = 0
KOD1 220032Z 15016KT 14/02 A297 RMK A01 T01410016  RH  043%=      5-min Rain = 0
KOD1 220033Z 14017KT 14/02 A297 RMK A01 T01410016  RH  043%=      5-min Rain = 0
KOD1 220034Z 15016KT 14/02 A297 RMK A01 T01410016  RH  043%=      5-min Rain = 0
KOD1 220035Z 14018KT 14/02 A297 RMK A01 T01410016  RH  043%=      5-min Rain = 0
KOD1 220036Z 14016KT 14/02 A297 RMK A01 T01410016  RH  043%=      5-min Rain = 0
KOD1 220037Z 14017KT 14/02 A297 RMK A01 T01410016  RH  043%=      5-min Rain = 0
KOD1 220038Z 14017G22KT 14/02 A297 RMK A01 T01410016  RH  043%=      5-min Rain = 0
KOD1 220039Z 14017KT 14/02 A297 RMK A01 T01410016  RH  043%=      5-min Rain = 0
KOD1 220040Z 14016KT 14/02 A297 RMK A01 T01410016  RH  043%=      5-min Rain = 0
KOD1 220041Z 14017KT 14/02 A297 RMK A01 T01400016  RH  043%=      5-min Rain = 0
KOD1 220042Z 14016KT 14/02 A297 RMK A01 T01400016  RH  043%=      5-min Rain = 0
KOD1 220043Z 14017KT 14/02 A297 RMK A01 T01390017  RH  043%=      5-min Rain = 0
KOD1 220044Z 14016KT 14/02 A297 RMK A01 T01390017  RH  043%=      5-min Rain = 0
KOD1 220045Z 14014KT 14/02 A297 RMK A01 T01380017  RH  044%=      5-min Rain = 0
KOD1 220046Z 14016KT 14/02 A297 RMK A01 T01370017  RH  044%=      5-min Rain = 0
KOD1 220047Z 14016KT 14/02 A297 RMK A01 T01370017  RH  044%=      5-min Rain = 0
KOD1 220048Z 14016KT 14/02 A297 RMK A01 T01370018  RH  044%=      5-min Rain = 0
KOD1 220049Z 14013KT 14/02 A297 RMK A01 T01360018  RH  045%=      5-min Rain = 0
KOD1 220050Z 14015KT 14/02 A297 RMK A01 T01350018  RH  045%=      5-min Rain = 0
KOD1 220051Z 14014KT 14/02 A297 RMK A01 T01350018  RH  045%=      5-min Rain = 0
KOD1 220052Z 13016KT 14/02 A297 RMK A01 T01350018  RH  045%=      5-min Rain = 0
KOD1 220053Z 14016KT 14/02 A297 RMK A01 T01350018  RH  045%=      5-min Rain = 0
KOD1 220054Z 14015KT 14/02 A297 RMK A01 T01350018  RH  045%=      5-min Rain = 0
KOD1 220055Z 14015KT 14/02 A297 RMK A01 T01350019  RH  045%=      5-min Rain = 0
KOD1 220056Z 14015KT 13/02 A297 RMK A01 T01340019  RH  045%=      5-min Rain = 0
KOD1 220057Z 14015KT 13/02 A2971 RMK A01 T01340019  RH  046%=      5-min Rain = 0
KOD1 220058Z 14015KT 13/02 A2971 RMK A01 T01340019  RH  046%=      5-min Rain = 0
KOD1 220059Z 14015KT 13/02 A297 RMK A01 T01330019  RH  046%=      5-min Rain = 0
KOD1 220100Z 14013KT 13/02 A297 RMK A01 T01330019  RH  046%=      5-min Rain = 0
KOD1 220101Z 14016KT 13/02 A297 RMK A01 T01330020  RH  046%=      5-min Rain = 0
KOD1 220102Z 14016KT 13/02 A297 RMK A01 T01330020  RH  046%=      5-min Rain = 0
KOD1 220103Z 14016KT 13/02 A297 RMK A01 T01330020  RH  046%=      5-min Rain = 0
KOD1 220104Z 14015KT 13/02 A297 RMK A01 T01330020  RH  046%=      5-min Rain = 0
KOD1 220105Z 14016KT 13/02 A297 RMK A01 T01330020  RH  046%=      5-min Rain = 0
KOD1 220106Z 14015KT 13/02 A297 RMK A01 T01320020  RH  046%=      5-min Rain = 0
KOD1 220107Z 14016KT 13/02 A297 RMK A01 T01320020  RH  047%=      5-min Rain = 0
KOD1 220108Z 14015KT 13/02 A297 RMK A01 T01320020  RH  047%=      5-min Rain = 0
KOD1 220109Z 14017KT 13/02 A297 RMK A01 T01320020  RH  047%=      5-min Rain = 0
KOD1 220110Z 14015KT 13/02 A297 RMK A01 T01320020  RH  046%=      5-min Rain = 0
KOD1 220111Z 14017KT 13/02 A297 RMK A01 T01320020  RH  047%=      5-min Rain = 0
KOD1 220112Z 14016KT 13/02 A297 RMK A01 T01330020  RH  046%=      5-min Rain = 0
KOD1 220113Z 14018KT 13/02 A297 RMK A01 T01330020  RH  046%=      5-min Rain = 0
KOD1 220114Z 14018KT 13/02 A297 RMK A01 T01340019  RH  046%=      5-min Rain = 0
KOD1 220115Z 14016KT 13/02 A297 RMK A01 T01340019  RH  046%=      5-min Rain = 0
KOD1 220116Z 14016G22KT 13/02 A297 RMK A01 T01340020  RH  046%=      5-min Rain = 0
KOD1 220117Z 14019KT 13/02 A2969 RMK A01 T01340019  RH  046%=      5-min Rain = 0
KOD1 220118Z 14016KT 14/02 A2969 RMK A01 T01350019  RH  046%=      5-min Rain = 0
KOD1 220119Z 14019KT 14/02 A297 RMK A01 T01350019  RH  045%=      5-min Rain = 0
KOD1 220120Z 14017G23KT 14/02 A297 RMK A01 T01350019  RH  045%=      5-min Rain = 0
KOD1 220121Z 14016KT 14/02 A297 RMK A01 T01350019  RH  046%=      5-min Rain = 0
KOD1 220122Z 14016G21KT 13/02 A2969 RMK A01 T01340020  RH  046%=      5-min Rain = 0
KOD1 220123Z 14014KT 13/02 A2969 RMK A01 T01330020  RH  046%=      5-min Rain = 0
KOD1 220124Z 15016KT 13/02 A2969 RMK A01 T01320020  RH  046%=      5-min Rain = 0
KOD1 220125Z 14015KT 13/02 A2969 RMK A01 T01320020  RH  046%=      5-min Rain = 0
KOD1 220126Z 14016KT 13/02 A297 RMK A01 T01320020  RH  046%=      5-min Rain = 0
KOD1 220127Z 14017KT 13/02 A297 RMK A01 T01320020  RH  046%=      5-min Rain = 0
KOD1 220128Z 14016KT 13/02 A297 RMK A01 T01320020  RH  046%=      5-min Rain = 0
KOD1 220129Z 14017KT 13/02 A297 RMK A01 T01320020  RH  046%=      5-min Rain = 0
KOD1 220130Z 14016G21KT 13/02 A297 RMK A01 T01320020  RH  046%=      5-min Rain = 0
KOD1 220131Z 14018KT 13/02 A297 RMK A01 T01320020  RH  046%=      5-min Rain = 0
KOD1 220132Z 14015KT 13/02 A297 RMK A01 T01320020  RH  046%=      5-min Rain = 0
KOD1 220133Z 14018G23KT 13/02 A297 RMK A01 T01320020  RH  047%=      5-min Rain = 0
KOD1 220134Z 15018KT 13/02 A297 RMK A01 T01320020  RH  046%=      5-min Rain = 0
KOD1 220135Z 15017KT 13/02 A297 RMK A01 T01320020  RH  046%=      5-min Rain = 0
KOD1 220136Z 15018KT 13/02 A297 RMK A01 T01320020  RH  046%=      5-min Rain = 0
KOD1 220137Z 15017KT 13/02 A297 RMK A01 T01320020  RH  046%=      5-min Rain = 0
KOD1 220138Z 15016KT 13/02 A297 RMK A01 T01320020  RH  047%=      5-min Rain = 0
KOD1 220139Z 14018KT 13/02 A297 RMK A01 T01310019  RH  047%=      5-min Rain = 0
KOD1 220140Z 14015KT 13/02 A297 RMK A01 T01320019  RH  046%=      5-min Rain = 0
KOD1 220141Z 14017KT 13/02 A297 RMK A01 T01320019  RH  046%=      5-min Rain = 0
KOD1 220142Z 14015KT 13/02 A297 RMK A01 T01320019  RH  046%=      5-min Rain = 0
KOD1 220143Z 14017KT 13/02 A297 RMK A01 T01310019  RH  046%=      5-min Rain = 0
KOD1 220144Z 14016KT 13/02 A297 RMK A01 T01310019  RH  046%=      5-min Rain = 0
KOD1 220145Z 14015KT 13/02 A297 RMK A01 T01310019  RH  047%=      5-min Rain = 0
KOD1 220146Z 14017KT 13/02 A2971 RMK A01 T01310019  RH  047%=      5-min Rain = 0
KOD1 220147Z 14016KT 13/02 A2971 RMK A01 T01300019  RH  047%=      5-min Rain = 0
KOD1 220148Z 14015KT 13/02 A2971 RMK A01 T01300019  RH  047%=      5-min Rain = 0
KOD1 220149Z 14017KT 13/02 A2971 RMK A01 T01300019  RH  047%=      5-min Rain = 0
KOD1 220150Z 14018KT 13/02 A2971 RMK A01 T01300019  RH  047%=      5-min Rain = 0
KOD1 220151Z 14015KT 13/02 A2971 RMK A01 T01300019  RH  047%=      5-min Rain = 0
KOD1 220152Z 14017KT 13/02 A2971 RMK A01 T01300019  RH  047%=      5-min Rain = 0
KOD1 220153Z 14016KT 13/02 A2971 RMK A01 T01300019  RH  047%=      5-min Rain = 0
KOD1 220154Z 14016KT 13/02 A2971 RMK A01 T01290019  RH  047%=      5-min Rain = 0
KOD1 220155Z 14016KT 13/02 A2971 RMK A01 T01290019  RH  047%=      5-min Rain = 0
KOD1 220156Z 14016KT 13/02 A2971 RMK A01 T01290019  RH  047%=      5-min Rain = 0
KOD1 220157Z 14017KT 13/02 A2971 RMK A01 T01290019  RH  047%=      5-min Rain = 0
KOD1 220158Z 14016G22KT 13/02 A2971 RMK A01 T01290019  RH  047%=      5-min Rain = 0
KOD1 220159Z 14017KT 13/02 A2971 RMK A01 T01290019  RH  047%=      5-min Rain = 0
KOD1 220200Z 14016KT 13/02 A2971 RMK A01 T01290019  RH  047%=      5-min Rain = 0
KOD1 220201Z 14015KT 13/02 A2971 RMK A01 T01280019  RH  047%=      5-min Rain = 0
KOD1 220202Z 15016KT 13/02 A2971 RMK A01 T01280019  RH  048%=      5-min Rain = 0
KOD1 220203Z 14016KT 13/02 A2971 RMK A01 T01270019  RH  048%=      5-min Rain = 0
KOD1 220204Z 14017KT 13/02 A2971 RMK A01 T01270019  RH  048%=      5-min Rain = 0
KOD1 220205Z 14015KT 13/02 A2971 RMK A01 T01270019  RH  048%=      5-min Rain = 0
KOD1 220206Z 14016KT 13/02 A2971 RMK A01 T01260019  RH  048%=      5-min Rain = 0
KOD1 220207Z 14017KT 13/02 A2971 RMK A01 T01260019  RH  048%=      5-min Rain = 0
KOD1 220208Z 14016KT 13/02 A2971 RMK A01 T01260020  RH  048%=      5-min Rain = 0
KOD1 220209Z 14015KT 13/02 A2971 RMK A01 T01250020  RH  049%=      5-min Rain = 0
KOD1 220210Z 14014KT 12/02 A2971 RMK A01 T01240020  RH  049%=      5-min Rain = 0
KOD1 220211Z 14015KT 12/02 A2971 RMK A01 T01230020  RH  049%=      5-min Rain = 0
KOD1 220212Z 14016KT 12/02 A2971 RMK A01 T01220020  RH  050%=      5-min Rain = 0
KOD1 220213Z 14017KT 12/02 A2971 RMK A01 T01220021  RH  050%=      5-min Rain = 0
KOD1 220214Z 14015KT 12/02 A2971 RMK A01 T01210021  RH  050%=      5-min Rain = 0
KOD1 220215Z 14015KT 12/02 A2971 RMK A01 T01200021  RH  051%=      5-min Rain = 0
KOD1 220216Z 14014KT 12/02 A2971 RMK A01 T01190021  RH  051%=      5-min Rain = 0
KOD1 220217Z 14015KT 12/02 A297 RMK A01 T01190022  RH  051%=      5-min Rain = 0
KOD1 220218Z 14015KT 12/02 A2971 RMK A01 T01180022  RH  052%=      5-min Rain = 0
KOD1 220219Z 14015KT 12/02 A297 RMK A01 T01170022  RH  052%=      5-min Rain = 0
KOD1 220220Z 14014KT 12/02 A2971 RMK A01 T01170022  RH  052%=      5-min Rain = 0
KOD1 220221Z 14015KT 12/02 A2971 RMK A01 T01160023  RH  053%=      5-min Rain = 0
KOD1 220222Z 14015KT 12/02 A2971 RMK A01 T01150023  RH  053%=      5-min Rain = 0
KOD1 220223Z 14016KT 12/02 A2971 RMK A01 T01150024  RH  053%=      5-min Rain = 0
KOD1 220224Z 14016KT 12/02 A297 RMK A01 T01150024  RH  054%=      5-min Rain = 0
KOD1 220225Z 14017KT 12/03 A297 RMK A01 T01150025  RH  054%=      5-min Rain = 0
KOD1 220226Z 14015KT 12/03 A297 RMK A01 T01160025  RH  054%=      5-min Rain = 0
KOD1 220227Z 14015KT 12/03 A297 RMK A01 T01160025  RH  054%=      5-min Rain = 0
KOD1 220228Z 14016KT 12/03 A297 RMK A01 T01160026  RH  054%=      5-min Rain = 0
KOD1 220229Z 14016KT 12/03 A297 RMK A01 T01160026  RH  054%=      5-min Rain = 0
KOD1 220230Z 14016KT 12/03 A297 RMK A01 T01160026  RH  054%=      5-min Rain = 0
KOD1 220231Z 14016KT 12/03 A297 RMK A01 T01160027  RH  054%=      5-min Rain = 0
KOD1 220232Z 14017KT 12/03 A297 RMK A01 T01160027  RH  054%=      5-min Rain = 0
KOD1 220233Z 14017KT 12/03 A297 RMK A01 T01160027  RH  054%=      5-min Rain = 0
KOD1 220234Z 14016KT 12/03 A297 RMK A01 T01160027  RH  054%=      5-min Rain = 0
KOD1 220235Z 14016KT 12/03 A297 RMK A01 T01160028  RH  054%=      5-min Rain = 0
KOD1 220236Z 14014KT 12/03 A297 RMK A01 T01160028  RH  055%=      5-min Rain = 0
KOD1 220237Z 14016KT 12/03 A297 RMK A01 T01160028  RH  055%=      5-min Rain = 0
KOD1 220238Z 14016KT 12/03 A297 RMK A01 T01160028  RH  055%=      5-min Rain = 0
KOD1 220239Z 14015KT 12/03 A297 RMK A01 T01170028  RH  055%=      5-min Rain = 0
KOD1 220240Z 14015KT 12/03 A297 RMK A01 T01170028  RH  055%=      5-min Rain = 0
KOD1 220241Z 14016KT 12/03 A297 RMK A01 T01170028  RH  055%=      5-min Rain = 0
KOD1 220242Z 15016KT 12/03 A297 RMK A01 T01170029  RH  055%=      5-min Rain = 0
KOD1 220243Z 14017KT 12/03 A297 RMK A01 T01180029  RH  054%=      5-min Rain = 0
KOD1 220244Z 14016KT 12/03 A297 RMK A01 T01180029  RH  054%=      5-min Rain = 0
KOD1 220245Z 14017KT 12/03 A297 RMK A01 T01180029  RH  054%=      5-min Rain = 0
KOD1 220246Z 15016KT 12/03 A297 RMK A01 T01180029  RH  054%=      5-min Rain = 0
KOD1 220247Z 15016KT 12/03 A297 RMK A01 T01180029  RH  054%=      5-min Rain = 0
KOD1 220248Z 15017KT 12/03 A297 RMK A01 T01180029  RH  055%=      5-min Rain = 0
KOD1 220249Z 15016KT 12/03 A297 RMK A01 T01180029  RH  055%=      5-min Rain = 0
KOD1 220250Z 15017KT 12/03 A297 RMK A01 T01180030  RH  055%=      5-min Rain = 0
KOD1 220251Z 15016KT 12/03 A297 RMK A01 T01180030  RH  055%=      5-min Rain = 0
KOD1 220252Z 15016KT 12/03 A297 RMK A01 T01180030  RH  055%=      5-min Rain = 0
KOD1 220253Z 15014KT 12/03 A297 RMK A01 T01170030  RH  055%=      5-min Rain = 0
KOD1 220254Z 15016KT 12/03 A297 RMK A01 T01170030  RH  055%=      5-min Rain = 0
KOD1 220255Z 15017KT 12/03 A297 RMK A01 T01170030  RH  055%=      5-min Rain = 0
KOD1 220256Z 15017KT 12/03 A297 RMK A01 T01170030  RH  055%=      5-min Rain = 0
KOD1 220257Z 15017KT 12/03 A297 RMK A01 T01170031  RH  056%=      5-min Rain = 0
KOD1 220258Z 15017KT 12/03 A297 RMK A01 T01160031  RH  056%=      5-min Rain = 0
KOD1 220259Z 15017KT 12/03 A297 RMK A01 T01160031  RH  056%=      5-min Rain = 0
KOD1 220300Z 15016KT 12/03 A297 RMK A01 T01160031  RH  056%=      5-min Rain = 0
KOD1 220301Z 15017KT 12/03 A297 RMK A01 T01150031  RH  056%=      5-min Rain = 0
KOD1 220302Z 15017KT 12/03 A297 RMK A01 T01160031  RH  056%=      5-min Rain = 0
KOD1 220303Z 15017KT 12/03 A297 RMK A01 T01150032  RH  056%=      5-min Rain = 0
KOD1 220304Z 15017KT 12/03 A297 RMK A01 T01150032  RH  056%=      5-min Rain = 0
KOD1 220305Z 15017KT 12/03 A2969 RMK A01 T01150032  RH  056%=      5-min Rain = 0
KOD1 220306Z 15017KT 12/03 A2969 RMK A01 T01150032  RH  056%=      5-min Rain = 0
KOD1 220307Z 15017G22KT 12/03 A2969 RMK A01 T01160032  RH  056%=      5-min Rain = 0
KOD1 220308Z 15016KT 12/03 A2969 RMK A01 T01160032  RH  056%=      5-min Rain = 0
KOD1 220309Z 15018KT 12/03 A2969 RMK A01 T01160032  RH  057%=      5-min Rain = 0
KOD1 220310Z 15016KT 12/03 A2969 RMK A01 T01160032  RH  057%=      5-min Rain = 0
KOD1 220311Z 15016KT 12/03 A2969 RMK A01 T01150032  RH  057%=      5-min Rain = 0
KOD1 220312Z 15017KT 12/03 A2969 RMK A01 T01150033  RH  057%=      5-min Rain = 0
KOD1 220313Z 15018KT 12/03 A2969 RMK A01 T01150033  RH  057%=      5-min Rain = 0
KOD1 220314Z 15016G21KT 12/03 A2969 RMK A01 T01150033  RH  057%=      5-min Rain = 0
KOD1 220315Z 15018KT 12/03 A2969 RMK A01 T01150033  RH  057%=      5-min Rain = 0
KOD1 220316Z 15019KT 12/03 A2969 RMK A01 T01150033  RH  057%=      5-min Rain = 0
KOD1 220317Z 15019KT 12/03 A2969 RMK A01 T01150033  RH  057%=      5-min Rain = 0
KOD1 220318Z 15019KT 12/03 A2969 RMK A01 T01150033  RH  057%=      5-min Rain = 0
KOD1 220319Z 15019KT 12/03 A2969 RMK A01 T01150034  RH  057%=      5-min Rain = 0
KOD1 220320Z 15017KT 12/03 A2969 RMK A01 T01150034  RH  057%=      5-min Rain = 0
KOD1 220321Z 15017KT 12/03 A2969 RMK A01 T01150034  RH  058%=      5-min Rain = 0
KOD1 220322Z 15017KT 11/03 A2969 RMK A01 T01140034  RH  058%=      5-min Rain = 0
KOD1 220323Z 15018KT 11/03 A2969 RMK A01 T01140034  RH  058%=      5-min Rain = 0
KOD1 220324Z 15017KT 11/03 A2969 RMK A01 T01140034  RH  058%=      5-min Rain = 0
KOD1 220325Z 15017KT 11/03 A2969 RMK A01 T01140034  RH  058%=      5-min Rain = 0
KOD1 220326Z 15018KT 11/03 A2969 RMK A01 T01140034  RH  058%=      5-min Rain = 0
KOD1 220327Z 15019KT 11/03 A2969 RMK A01 T01140034  RH  058%=      5-min Rain = 0
KOD1 220328Z 15016KT 11/03 A2969 RMK A01 T01140034  RH  058%=      5-min Rain = 0
KOD1 220329Z 15019KT 11/04 A2969 RMK A01 T01130035  RH  058%=      5-min Rain = 0
KOD1 220330Z 15017KT 11/04 A2969 RMK A01 T01130035  RH  058%=      5-min Rain = 0
KOD1 220331Z 15017KT 11/04 A2969 RMK A01 T01130035  RH  058%=      5-min Rain = 0
KOD1 220332Z 15017KT 11/04 A2969 RMK A01 T01130035  RH  059%=      5-min Rain = 0
KOD1 220333Z 15018G24KT 11/04 A2969 RMK A01 T01130035  RH  059%=      5-min Rain = 0
KOD1 220334Z 14018G24KT 11/04 A2968 RMK A01 T01130035  RH  059%=      5-min Rain = 0
KOD1 220335Z 15018KT 11/04 A2969 RMK A01 T01130035  RH  059%=      5-min Rain = 0
KOD1 220336Z 15017KT 11/04 A2969 RMK A01 T01130035  RH  059%=      5-min Rain = 0
KOD1 220337Z 15018KT 11/04 A2969 RMK A01 T01130035  RH  059%=      5-min Rain = 0
KOD1 220338Z 15018KT 11/04 A2968 RMK A01 T01120035  RH  059%=      5-min Rain = 0
KOD1 220339Z 15017KT 11/04 A2969 RMK A01 T01120035  RH  059%=      5-min Rain = 0
KOD1 220340Z 15018KT 11/04 A2969 RMK A01 T01120035  RH  059%=      5-min Rain = 0
KOD1 220341Z 15018KT 11/04 A2969 RMK A01 T01120036  RH  059%=      5-min Rain = 0
KOD1 220342Z 15016G22KT 11/04 A2968 RMK A01 T01120036  RH  059%=      5-min Rain = 0
KOD1 220343Z 15018KT 11/04 A2968 RMK A01 T01120036  RH  060%=      5-min Rain = 0
KOD1 220344Z 15017KT 11/04 A2968 RMK A01 T01110036  RH  060%=      5-min Rain = 0
KOD1 220345Z 15018KT 11/04 A2968 RMK A01 T01110036  RH  060%=      5-min Rain = 0
KOD1 220346Z 15018KT 11/04 A2968 RMK A01 T01110036  RH  060%=      5-min Rain = 0
KOD1 220347Z 15017KT 11/04 A2968 RMK A01 T01110036  RH  060%=      5-min Rain = 0
KOD1 220348Z 15018KT 11/04 A2968 RMK A01 T01110036  RH  060%=      5-min Rain = 0
KOD1 220349Z 15019KT 11/04 A2968 RMK A01 T01110036  RH  060%=      5-min Rain = 0
KOD1 220350Z 15020KT 11/04 A2968 RMK A01 T01120036  RH  060%=      5-min Rain = 0
KOD1 220351Z 15017KT 11/04 A2968 RMK A01 T01120036  RH  060%=      5-min Rain = 0
KOD1 220352Z 15018KT 11/04 A2968 RMK A01 T01120037  RH  060%=      5-min Rain = 0
KOD1 220353Z 15018KT 11/04 A2968 RMK A01 T01120037  RH  060%=      5-min Rain = 0
KOD1 220354Z 15019KT 11/04 A2968 RMK A01 T01120037  RH  060%=      5-min Rain = 0
KOD1 220355Z 15017KT 11/04 A2968 RMK A01 T01120037  RH  060%=      5-min Rain = 0
KOD1 220356Z 15019KT 11/04 A2968 RMK A01 T01120037  RH  060%=      5-min Rain = 0
KOD1 220357Z 15019KT 11/04 A2968 RMK A01 T01120037  RH  060%=      5-min Rain = 0
KOD1 220358Z 15018G24KT 11/04 A2968 RMK A01 T01120037  RH  060%=      5-min Rain = 0
KOD1 220359Z 15017KT 11/04 A2968 RMK A01 T01120037  RH  060%=      5-min Rain = 0
KOD1 220400Z 16020KT 11/04 A2968 RMK A01 T01120038  RH  060%=      5-min Rain = 0
KOD1 220401Z 16020KT 11/04 A2968 RMK A01 T01120038  RH  060%=      5-min Rain = 0
KOD1 220402Z 15019KT 11/04 A2968 RMK A01 T01120038  RH  060%=      5-min Rain = 0
KOD1 220403Z 16019KT 11/04 A2968 RMK A01 T01120038  RH  060%=      5-min Rain = 0
KOD1 220404Z 15018KT 11/04 A2968 RMK A01 T01120038  RH  060%=      5-min Rain = 0
KOD1 220405Z 15019KT 11/04 A2968 RMK A01 T01120038  RH  060%=      5-min Rain = 0
KOD1 220406Z 15018G23KT 11/04 A2968 RMK A01 T01130038  RH  060%=      5-min Rain = 0
KOD1 220407Z 15018KT 11/04 A2968 RMK A01 T01120038  RH  060%=      5-min Rain = 0
KOD1 220408Z 15017KT 11/04 A2968 RMK A01 T01120039  RH  060%=      5-min Rain = 0
KOD1 220409Z 15018KT 11/04 A2968 RMK A01 T01120039  RH  061%=      5-min Rain = 0
KOD1 220410Z 15018KT 11/04 A2968 RMK A01 T01120039  RH  061%=      5-min Rain = 0
KOD1 220411Z 15017KT 11/04 A2968 RMK A01 T01120039  RH  061%=      5-min Rain = 0
KOD1 220412Z 15017KT 11/04 A2968 RMK A01 T01120039  RH  061%=      5-min Rain = 0
KOD1 220413Z 15018G23KT 11/04 A2967 RMK A01 T01120039  RH  061%=      5-min Rain = 0
KOD1 220414Z 16018KT 11/04 A2967 RMK A01 T01120040  RH  061%=      5-min Rain = 0
KOD1 220415Z 16017KT 11/04 A2967 RMK A01 T01130040  RH  061%=      5-min Rain = 0
KOD1 220416Z 16018KT 11/04 A2967 RMK A01 T01130040  RH  061%=      5-min Rain = 0
KOD1 220417Z 15017KT 11/04 A2967 RMK A01 T01130040  RH  061%=      5-min Rain = 0
KOD1 220418Z 16019KT 11/04 A2967 RMK A01 T01130040  RH  061%=      5-min Rain = 0
KOD1 220419Z 15020KT 11/04 A2967 RMK A01 T01140040  RH  060%=      5-min Rain = 0
KOD1 220420Z 16018KT 12/04 A2967 RMK A01 T01150041  RH  060%=      5-min Rain = 0
KOD1 220421Z 16019KT 12/04 A2967 RMK A01 T01150041  RH  061%=      5-min Rain = 0
KOD1 220422Z 15018KT 12/04 A2967 RMK A01 T01150041  RH  061%=      5-min Rain = 0
KOD1 220423Z 16019KT 12/04 A2967 RMK A01 T01150041  RH  061%=      5-min Rain = 0
KOD1 220424Z 16019KT 12/04 A2967 RMK A01 T01150041  RH  061%=      5-min Rain = 0
KOD1 220425Z 16020KT 12/04 A2967 RMK A01 T01160042  RH  060%=      5-min Rain = 0
KOD1 220426Z 16020KT 12/04 A2967 RMK A01 T01160042  RH  060%=      5-min Rain = 0
KOD1 220427Z 16019KT 12/04 A2967 RMK A01 T01160042  RH  060%=      5-min Rain = 0
KOD1 220428Z 16019KT 12/04 A2967 RMK A01 T01160042  RH  060%=      5-min Rain = 0
KOD1 220429Z 16018KT 12/04 A2967 RMK A01 T01170042  RH  060%=      5-min Rain = 0
KOD1 220430Z 16017KT 12/04 A2967 RMK A01 T01160043  RH  060%=      5-min Rain = 0
KOD1 220431Z 16017KT 12/04 A2967 RMK A01 T01160043  RH  061%=      5-min Rain = 0
KOD1 220432Z 16017KT 12/04 A2967 RMK A01 T01160043  RH  061%=      5-min Rain = 0
KOD1 220433Z 16017KT 12/04 A2967 RMK A01 T01160043  RH  061%=      5-min Rain = 0
KOD1 220434Z 16017KT 12/04 A2967 RMK A01 T01160043  RH  061%=      5-min Rain = 0
KOD1 220435Z 16018KT 12/04 A2967 RMK A01 T01160044  RH  061%=      5-min Rain = 0
KOD1 220436Z 16017KT 12/04 A2967 RMK A01 T01170044  RH  061%=      5-min Rain = 0
KOD1 220437Z 16017KT 12/04 A2967 RMK A01 T01160044  RH  061%=      5-min Rain = 0
KOD1 220438Z 16018KT 12/04 A2967 RMK A01 T01160044  RH  061%=      5-min Rain = 0
KOD1 220439Z 16018KT 12/04 A2967 RMK A01 T01160044  RH  061%=      5-min Rain = 0
KOD1 220440Z 16017KT 12/05 A2967 RMK A01 T01160045  RH  061%=      5-min Rain = 0
KOD1 220441Z 16018G24KT 12/05 A2967 RMK A01 T01170045  RH  061%=      5-min Rain = 0
KOD1 220442Z 16018KT 12/05 A2967 RMK A01 T01170045  RH  061%=      5-min Rain = 0
KOD1 220443Z 16017KT 12/05 A2967 RMK A01 T01180045  RH  061%=      5-min Rain = 0
KOD1 220444Z 16017KT 12/05 A2967 RMK A01 T01180046  RH  061%=      5-min Rain = 0
KOD1 220445Z 16015KT 12/05 A2967 RMK A01 T01170046  RH  061%=      5-min Rain = 0
KOD1 220446Z 16017KT 12/05 A2967 RMK A01 T01170046  RH  062%=      5-min Rain = 0
KOD1 220447Z 16018KT 12/05 A2967 RMK A01 T01180047  RH  062%=      5-min Rain = 0
KOD1 220448Z 16017KT 12/05 A2967 RMK A01 T01180047  RH  062%=      5-min Rain = 0
KOD1 220449Z 16017KT 12/05 A2967 RMK A01 T01180047  RH  062%=      5-min Rain = 0
KOD1 220450Z 16020KT 12/05 A2967 RMK A01 T01190048  RH  062%=      5-min Rain = 0
KOD1 220451Z 17021KT 12/05 A2967 RMK A01 T01200048  RH  061%=      5-min Rain = 0
KOD1 220452Z 17020G27KT 12/05 A2967 RMK A01 T01210048  RH  061%=      5-min Rain = 0
KOD1 220453Z 16021KT 12/05 A2967 RMK A01 T01220049  RH  061%=      5-min Rain = 0
KOD1 220454Z 17019KT 12/05 A2967 RMK A01 T01220049  RH  061%=      5-min Rain = 0
KOD1 220455Z 17022KT 12/05 A2967 RMK A01 T01230049  RH  061%=      5-min Rain = 0
KOD1 220456Z 17021KT 12/05 A2967 RMK A01 T01240049  RH  061%=      5-min Rain = 0
KOD1 220457Z 17021KT 12/05 A2967 RMK A01 T01240050  RH  060%=      5-min Rain = 0
KOD1 220458Z 17021G28KT 13/05 A2967 RMK A01 T01250050  RH  060%=      5-min Rain = 0
KOD1 220459Z 16022KT 13/05 A2967 RMK A01 T01250050  RH  060%=      5-min Rain = 0
KOD1 220500Z 17021KT 13/05 A2967 RMK A01 T01250051  RH  060%=      5-min Rain = 0
KOD1 220501Z 17021G26KT 13/05 A2967 RMK A01 T01260051  RH  060%=      5-min Rain = 0
KOD1 220502Z 17020G25KT 13/05 A2967 RMK A01 T01260051  RH  060%=      5-min Rain = 0
KOD1 220503Z 17021KT 13/05 A2967 RMK A01 T01260052  RH  061%=      5-min Rain = 0
KOD1 220504Z 17021KT 13/05 A2967 RMK A01 T01260052  RH  061%=      5-min Rain = 0
KOD1 220505Z 17022KT 13/05 A2967 RMK A01 T01270052  RH  060%=      5-min Rain = 0
KOD1 220506Z 17022KT 13/05 A2967 RMK A01 T01270052  RH  060%=      5-min Rain = 0
KOD1 220507Z 17023KT 13/05 A2967 RMK A01 T01270053  RH  060%=      5-min Rain = 0
KOD1 220508Z 16022G28KT 13/05 A2967 RMK A01 T01280053  RH  060%=      5-min Rain = 0
KOD1 220509Z 17019KT 13/05 A2967 RMK A01 T01270053  RH  061%=      5-min Rain = 0
KOD1 220510Z 17019KT 13/05 A2967 RMK A01 T01270053  RH  061%=      5-min Rain = 0
KOD1 220511Z 17019G24KT 13/05 A2967 RMK A01 T01270054  RH  061%=      5-min Rain = 0
KOD1 220512Z 17020KT 13/05 A2967 RMK A01 T01270054  RH  061%=      5-min Rain = 0
KOD1 220513Z 17019KT 13/05 A2967 RMK A01 T01270054  RH  061%=      5-min Rain = 0
KOD1 220514Z 17019G24KT 13/05 A2967 RMK A01 T01260054  RH  061%=      5-min Rain = 0
KOD1 220515Z 17019G25KT 13/05 A2967 RMK A01 T01260054  RH  062%=      5-min Rain = 0
KOD1 220516Z 17020KT 13/06 A2967 RMK A01 T01260055  RH  062%=      5-min Rain = 0
KOD1 220517Z 17020KT 13/06 A2967 RMK A01 T01260055  RH  062%=      5-min Rain = 0
KOD1 220518Z 17021KT 13/06 A2967 RMK A01 T01260055  RH  062%=      5-min Rain = 0
KOD1 220519Z 17019KT 13/06 A2967 RMK A01 T01260055  RH  062%=      5-min Rain = 0
KOD1 220520Z 17019G24KT 13/06 A2967 RMK A01 T01260055  RH  062%=      5-min Rain = 0
KOD1 220521Z 17018KT 13/06 A2967 RMK A01 T01260055  RH  062%=      5-min Rain = 0
KOD1 220522Z 17017KT 13/06 A2967 RMK A01 T01260056  RH  062%=      5-min Rain = 0
KOD1 220523Z 17018KT 13/06 A2967 RMK A01 T01260056  RH  063%=      5-min Rain = 0
KOD1 220524Z 17018G23KT 13/06 A2967 RMK A01 T01260056  RH  063%=      5-min Rain = 0
KOD1 220525Z 17020KT 13/06 A2967 RMK A01 T01260057  RH  063%=      5-min Rain = 0
KOD1 220526Z 17020KT 13/06 A2967 RMK A01 T01260057  RH  063%=      5-min Rain = 0
KOD1 220527Z 17020G25KT 13/06 A2967 RMK A01 T01260057  RH  063%=      5-min Rain = 0
KOD1 220528Z 17018KT 13/06 A2967 RMK A01 T01260057  RH  063%=      5-min Rain = 0
KOD1 220529Z 17019G24KT 13/06 A2967 RMK A01 T01250057  RH  063%=      5-min Rain = 0
KOD1 220530Z 17019KT 13/06 A2967 RMK A01 T01250057  RH  063%=      5-min Rain = 0
KOD1 220531Z 17019KT 13/06 A2967 RMK A01 T01250058  RH  063%=      5-min Rain = 0
KOD1 220532Z 17019KT 13/06 A2967 RMK A01 T01260058  RH  063%=      5-min Rain = 0
KOD1 220533Z 17019KT 13/06 A2967 RMK A01 T01260058  RH  063%=      5-min Rain = 0
KOD1 220534Z 17018KT 13/06 A2967 RMK A01 T01250058  RH  064%=      5-min Rain = 0
KOD1 220535Z 17017KT 13/06 A2967 RMK A01 T01250058  RH  064%=      5-min Rain = 0
KOD1 220536Z 17018KT 13/06 A2967 RMK A01 T01250059  RH  064%=      5-min Rain = 0
KOD1 220537Z 17018G24KT 13/06 A2967 RMK A01 T01250059  RH  064%=      5-min Rain = 0
KOD1 220538Z 17017KT 13/06 A2967 RMK A01 T01250059  RH  064%=      5-min Rain = 0
KOD1 220539Z 17017KT 12/06 A2967 RMK A01 T01240059  RH  065%=      5-min Rain = 0
KOD1 220540Z 17016KT 12/06 A2967 RMK A01 T01240059  RH  065%=      5-min Rain = 0
KOD1 220541Z 17016KT 12/06 A2967 RMK A01 T01230059  RH  065%=      5-min Rain = 0
KOD1 220542Z 17018KT 12/06 A2967 RMK A01 T01230060  RH  065%=      5-min Rain = 0
KOD1 220543Z 17017KT 12/06 A2967 RMK A01 T01230060  RH  065%=      5-min Rain = 0
KOD1 220544Z 17016KT 12/06 A2967 RMK A01 T01240060  RH  065%=      5-min Rain = 0
KOD1 220545Z 17018KT 12/06 A2967 RMK A01 T01230060  RH  065%=      5-min Rain = 0
KOD1 220546Z 17020KT 12/06 A2967 RMK A01 T01230061  RH  065%=      5-min Rain = 0
KOD1 220547Z 17018KT 12/06 A2967 RMK A01 T01240061  RH  065%=      5-min Rain = 0
KOD1 220548Z 17017KT 12/06 A2967 RMK A01 T01230061  RH  066%=      5-min Rain = 0
KOD1 220549Z 17016KT 12/06 A2967 RMK A01 T01230061  RH  066%=      5-min Rain = 0
KOD1 220550Z 17018KT 12/06 A2967 RMK A01 T01230061  RH  066%=      5-min Rain = 0
KOD1 220551Z 17017KT 12/06 A2967 RMK A01 T01230062  RH  066%=      5-min Rain = 0
KOD1 220552Z 17018KT 12/06 A2967 RMK A01 T01230062  RH  066%=      5-min Rain = 0
KOD1 220553Z 17016KT 12/06 A2967 RMK A01 T01230062  RH  066%=      5-min Rain = 0
KOD1 220554Z 17017KT 12/06 A2966 RMK A01 T01230062  RH  066%=      5-min Rain = 0
KOD1 220555Z 17017KT 12/06 A2966 RMK A01 T01230063  RH  067%=      5-min Rain = 0
KOD1 220556Z 17017KT 12/06 A2966 RMK A01 T01230063  RH  067%=      5-min Rain = 0
KOD1 220557Z 17018KT 12/06 A2966 RMK A01 T01230063  RH  067%=      5-min Rain = 0
KOD1 220558Z 17016KT 12/06 A2966 RMK A01 T01230063  RH  067%=      5-min Rain = 0
KOD1 220559Z 17018KT 12/06 A2966 RMK A01 T01230064  RH  067%=      5-min Rain = 0

Page generated in 0.1737 seconds.